[{"header": {"dx": 0.06612293990616946, "dy": 0.0552356325346848, "nx": 98, "ny": 59, "la1": 35.046912555036876, "la2": 31.78801023549047, "lo1": -121.43107172385933, "lo2": -114.95102361305473, "refTime": "2026041702", "parameterCategory": 1, "parameterNumber": 2}, "data": [10.76, 11.1, 11.08, 10.76, 10.45, 10.43, 9.8, 9.46, 8.5, 8.15, 7.44, 6.51, 6.8, 6.02, 5.75, 4.85, 4.92, 4.47, 4.47, 4.47, 4.02, 4.47, 4.38, 1.8, -1.6, -3.55, -3.55, -3.0, -2.35, -1.52, -0.89, 0.0, 0.0, 0.0, 0.79, 1.49, 2.15, 2.53, 3.07, 3.79, 4.11, 5.43, 6.52, 8.0, 10.16, 11.34, 11.75, 10.01, 9.26, 9.39, 10.28, 10.7, 10.62, 11.06, 10.93, 11.4, 11.66, 12.14, 12.14, 12.27, 11.84, 11.4, 11.84, 11.84, 11.84, 11.84, 12.3, 12.58, 12.58, 12.74, 12.42, 12.42, 11.98, 11.52, 11.52, 12.05, 12.52, 13.39, 14.22, 12.42, 9.7, 7.71, 7.47, 8.0, 9.03, 9.05, 9.27, 9.2, 8.55, 8.55, 8.0, 7.89, 7.21, 4.92, 2.86, 2.15, 2.15, 2.53, 11.1, 11.1, 11.08, 11.06, 10.45, 10.43, 10.12, 9.17, 8.82, 7.86, 6.92, 7.06, 6.07, 5.86, 6.79, 6.14, 4.85, 4.92, 4.34, 4.38, 4.24, 3.82, 3.39, 1.13, -1.7, -3.9, -3.9, -3.33, -3.33, -2.47, -1.6, -0.81, 0.0, 0.0, 0.71, 1.49, 2.21, 3.16, 3.07, 3.79, 4.74, 5.69, 7.21, 8.03, 9.9, 10.8, 10.01, 8.36, 8.01, 8.49, 9.39, 10.25, 10.62, 10.52, 10.98, 11.4, 11.84, 12.27, 12.3, 11.84, 11.84, 11.4, 11.84, 11.84, 11.84, 12.14, 12.58, 13.05, 13.67, 13.32, 12.42, 11.52, 11.08, 12.04, 12.49, 12.96, 12.96, 13.39, 14.22, 12.42, 9.7, 7.71, 7.47, 8.0, 9.03, 9.05, 9.27, 9.2, 8.55, 8.55, 8.0, 7.89, 7.21, 4.92, 2.86, 2.15, 2.15, 2.53, 11.1, 11.39, 11.08, 11.06, 11.06, 10.75, 10.4, 9.77, 8.53, 8.19, 6.92, 6.23, 6.44, 6.4, 6.28, 6.07, 6.02, 5.59, 5.09, 4.8, 4.15, 3.72, 2.84, 0.99, -1.19, -4.29, -3.9, -3.9, -3.33, -2.64, -2.47, -1.47, -0.79, 0.0, 0.87, 1.98, 3.16, 3.79, 3.72, 4.74, 5.69, 6.98, 7.68, 8.32, 9.27, 9.49, 8.8, 8.05, 8.05, 8.49, 8.94, 9.81, 10.25, 10.6, 10.52, 11.36, 11.84, 11.96, 12.42, 11.96, 11.4, 11.4, 11.66, 11.66, 11.87, 12.58, 13.49, 14.11, 13.77, 13.32, 12.87, 12.49, 12.04, 12.04, 12.07, 12.96, 13.39, 13.84, 13.69, 11.84, 8.63, 7.35, 7.35, 8.05, 8.55, 9.14, 9.14, 9.05, 8.63, 8.63, 8.05, 7.03, 5.16, 3.04, 2.21, 1.88, 2.21, 2.5, 11.39, 11.08, 11.08, 11.38, 11.06, 11.03, 10.4, 10.09, 9.13, 7.9, 6.95, 6.32, 6.39, 6.07, 6.0, 6.7, 6.28, 6.16, 5.75, 5.2, 4.8, 4.8, 4.09, 2.0, -1.7, -4.19, -4.29, -4.01, -3.11, -2.64, -2.35, -1.63, -1.52, 0.0, 1.08, 2.2, 2.2, 3.49, 4.56, 5.3, 6.32, 7.02, 7.44, 8.0, 8.3, 8.36, 8.01, 8.05, 8.49, 8.94, 8.94, 9.81, 10.25, 10.25, 10.25, 11.15, 11.6, 11.98, 12.42, 11.96, 11.84, 11.66, 11.45, 11.87, 12.58, 13.21, 13.77, 13.79, 13.7, 13.25, 12.42, 11.52, 11.6, 11.15, 12.07, 12.94, 13.32, 13.32, 12.77, 10.49, 7.98, 6.94, 7.03, 8.05, 7.68, 8.03, 8.03, 8.32, 8.06, 8.06, 7.03, 4.4, 2.68, 2.15, 1.88, 1.88, 2.5, 2.91, 11.39, 11.08, 11.08, 11.38, 11.06, 11.03, 10.72, 10.09, 9.46, 8.22, 7.27, 6.04, 6.39, 6.18, 6.07, 6.44, 6.25, 6.4, 5.82, 4.81, 5.01, 3.79, 3.48, 3.48, 0.0, -3.45, -4.47, -3.45, -2.32, -1.72, -1.63, -1.55, -1.65, -0.83, 0.0, 2.49, 2.49, 4.47, 4.71, 4.71, 5.37, 5.82, 6.4, 7.21, 7.21, 7.55, 7.56, 7.6, 8.49, 8.94, 8.94, 9.83, 9.83, 10.28, 10.73, 10.7, 11.15, 11.52, 11.86, 11.84, 11.23, 11.18, 11.45, 12.14, 12.77, 13.32, 12.87, 12.3, 12.58, 13.01, 12.37, 11.66, 10.37, 10.62, 11.62, 11.99, 12.3, 11.96, 10.62, 10.05, 7.56, 6.4, 7.07, 7.06, 7.02, 6.68, 7.02, 7.02, 6.7, 5.82, 3.2, 2.24, 2.23, 1.9, 1.9, 2.5, 2.91, 3.07, 11.08, 11.08, 11.38, 11.06, 11.36, 11.03, 10.72, 10.09, 9.17, 8.82, 7.59, 6.34, 6.32, 6.11, 6.55, 6.08, 6.44, 6.18, 6.08, 5.69, 4.42, 2.35, 1.23, 1.14, 0.0, -2.32, -3.68, -2.49, -2.32, -1.23, -0.78, -0.83, 0.0, 0.0, 0.69, 0.78, 2.47, 5.06, 4.83, 3.91, 3.2, 4.11, 5.43, 6.7, 6.98, 6.66, 6.66, 7.15, 8.49, 8.94, 9.39, 9.39, 9.83, 9.83, 10.25, 10.7, 11.06, 11.4, 11.84, 11.84, 11.18, 10.75, 11.84, 12.42, 12.49, 11.98, 11.52, 11.18, 11.87, 12.14, 12.56, 11.62, 10.95, 11.36, 11.62, 11.15, 9.72, 9.26, 8.46, 8.8, 6.7, 6.07, 6.44, 6.39, 6.01, 6.32, 6.32, 6.44, 3.83, 1.7, 1.2, 1.58, 1.24, 1.9, 1.9, 3.07, 3.13, 2.6, 11.08, 11.08, 11.38, 11.06, 11.36, 11.03, 10.72, 10.4, 9.77, 8.53, 7.3, 6.35, 7.02, 6.39, 7.64, 6.44, 6.7, 7.15, 6.39, 6.01, 6.01, 5.1, 2.51, 0.0, -1.14, -2.32, -3.0, -2.12, -2.12, -1.63, -1.1, 0.0, 0.78, 1.72, 1.41, 0.82, 1.6, 3.48, 2.48, 0.82, 1.19, 1.13, 3.35, 3.82, 4.47, 5.36, 6.26, 6.71, 7.6, 8.94, 8.94, 8.46, 8.91, 9.26, 10.16, 10.49, 10.93, 11.4, 11.84, 11.4, 11.06, 11.06, 12.04, 12.07, 11.6, 10.93, 10.43, 10.15, 11.09, 12.04, 12.04, 10.95, 10.96, 11.6, 12.07, 10.73, 8.91, 7.11, 6.65, 7.11, 6.79, 6.44, 6.39, 6.39, 5.69, 5.0, 4.81, 1.86, 0.89, -0.0, 0.42, 0.57, 1.26, 1.86, 2.17, 2.68, 2.17, 1.24, 11.08, 11.38, 11.38, 11.06, 11.36, 11.03, 10.99, 10.4, 9.77, 8.85, 8.22, 6.69, 6.95, 6.73, 7.81, 6.68, 7.33, 7.41, 6.68, 6.39, 7.07, 7.28, 7.07, 5.43, 1.66, -0.85, -2.4, -2.32, -2.49, -2.26, -1.18, 0.0, 1.1, 2.32, 2.04, 1.47, 0.0, -0.89, 0.45, 0.0, 0.45, 0.45, 0.89, 1.34, 2.0, 3.39, 5.59, 6.98, 6.98, 8.17, 7.42, 8.14, 9.06, 9.54, 10.45, 11.06, 11.06, 11.15, 11.62, 11.18, 11.18, 11.18, 11.18, 10.25, 9.33, 9.27, 9.9, 10.23, 10.95, 11.45, 11.18, 10.62, 10.7, 11.18, 11.18, 10.28, 9.39, 7.6, 7.11, 7.42, 6.85, 6.25, 5.36, 3.48, 1.49, 0.8, 0.0, 0.45, -0.0, -0.0, -0.0, 0.63, 1.34, 1.79, 2.24, 2.24, 1.26, 0.65, 11.38, 11.38, 11.06, 11.06, 11.36, 11.03, 10.99, 10.4, 10.09, 9.17, 8.24, 6.98, 6.71, 5.9, 6.53, 6.53, 6.53, 6.64, 6.32, 6.01, 5.69, 7.07, 8.8, 9.24, 7.35, 3.72, 0.0, -0.8, -1.27, -1.19, 0.0, 0.0, 1.27, 1.13, 2.41, 1.49, -1.34, -2.21, -0.0, -0.0, -0.0, 0.8, 1.9, 2.21, 2.98, 4.22, 5.4, 5.81, 6.8, 7.03, 8.4, 7.89, 9.06, 9.54, 9.72, 10.25, 10.73, 10.73, 10.7, 10.7, 10.62, 10.16, 8.49, 7.35, 7.35, 8.65, 10.28, 10.23, 10.01, 10.25, 10.16, 10.26, 10.73, 11.15, 11.15, 10.7, 9.36, 8.46, 7.89, 7.76, 5.16, 4.0, 0.6, 0.0, -0.89, -0.89, -0.8, -0.63, -0.63, -0.0, 0.0, 0.45, 1.34, 1.79, 1.79, 1.26, 0.54, -0.0, 11.38, 11.06, 11.06, 11.36, 11.36, 11.03, 10.99, 10.4, 9.8, 9.48, 8.87, 8.58, 8.24, 6.97, 6.98, 5.9, 5.9, 5.9, 5.21, 4.2, 4.66, 4.4, 6.71, 7.9, 7.81, 5.69, 1.9, 0.0, -0.45, 0.0, 0.89, -0.89, 0.89, 0.89, 0.89, 0.89, -0.0, -0.0, -0.0, 2.21, 3.22, 3.58, 4.22, 4.4, 4.66, 4.66, 5.75, 6.4, 6.44, 7.03, 7.6, 7.89, 8.63, 8.8, 8.9, 8.9, 8.94, 8.9, 9.24, 9.11, 8.8, 6.26, 5.59, 5.76, 7.08, 7.9, 8.65, 8.58, 7.85, 7.89, 8.33, 9.39, 10.26, 11.09, 10.98, 10.8, 9.83, 9.33, 8.97, 7.98, 4.46, 0.0, -0.89, -1.7, -1.6, -1.6, -1.2, -1.34, -0.89, -0.45, 0.0, 0.63, 0.95, 0.89, 0.63, -0.0, -0.0, -0.0, 11.06, 11.06, 11.06, 11.36, 11.36, 11.03, 11.33, 10.72, 10.4, 9.8, 9.19, 9.19, 9.19, 8.87, 8.12, 7.18, 6.83, 5.72, 5.72, 5.72, 6.2, 5.0, 5.2, 5.63, 6.45, 3.97, 1.4, 0.0, -0.0, -0.45, 0.45, -0.0, -0.0, -0.0, -0.0, 0.45, 0.95, 1.0, 2.53, 4.22, 4.84, 4.22, 4.8, 6.23, 6.14, 4.41, 4.8, 4.84, 5.21, 5.82, 6.4, 6.44, 6.44, 6.44, 5.82, 5.46, 5.82, 6.02, 6.21, 5.59, 3.95, 3.33, 4.07, 5.3, 6.33, 6.87, 7.12, 6.45, 6.24, 6.44, 6.94, 8.02, 9.28, 10.37, 10.79, 10.79, 10.0, 9.6, 8.63, 7.67, 5.09, 0.71, -0.89, -2.12, -1.7, -1.7, -1.34, -1.34, -0.95, -0.6, 0.0, 0.0, 0.0, 0.0, -0.0, -0.0, -0.0, -0.0, 10.76, 11.06, 11.06, 11.36, 11.36, 11.03, 11.33, 10.99, 10.72, 10.4, 9.8, 9.8, 9.8, 9.8, 9.72, 8.73, 7.44, 6.52, 6.87, 7.73, 8.55, 8.55, 7.35, 7.81, 7.07, 6.8, 6.23, 3.13, 2.6, 0.89, 0.45, 1.26, -0.0, -0.0, 0.8, 1.26, 1.26, 1.74, 2.53, 4.19, 4.84, 4.84, 5.34, 6.23, 5.7, 3.2, 2.84, 3.79, 4.46, 4.8, 4.54, 3.9, 4.03, 3.27, 3.27, 3.27, 4.12, 5.06, 3.13, -0.0, -0.0, 2.41, 4.75, 4.75, 4.65, 4.87, 5.62, 5.38, 4.75, 5.52, 6.32, 7.73, 8.49, 9.08, 9.27, 9.3, 8.68, 8.03, 7.96, 7.95, 6.06, 4.22, 1.86, -1.26, -1.7, -1.34, -1.2, -1.26, -0.57, -0.54, 0.0, -0.71, -1.2, -1.2, -0.57, -0.0, -0.0, -0.0, 10.76, 11.06, 11.06, 11.36, 11.36, 11.03, 11.33, 11.33, 10.99, 10.72, 10.4, 10.12, 10.12, 10.4, 10.36, 10.23, 9.76, 8.96, 8.43, 8.96, 10.21, 11.39, 11.74, 11.4, 10.67, 10.28, 9.83, 9.77, 9.23, 7.51, 5.81, 4.38, 2.6, 2.6, 1.9, 2.21, 2.53, 3.16, 3.16, 3.84, 4.8, 4.8, 4.66, 4.41, 2.24, 1.58, 1.27, 2.48, 3.16, 2.48, 1.55, 1.6, 1.52, 0.74, 1.18, 2.4, 2.54, 5.03, 3.47, -0.87, -0.82, 2.34, 3.91, 3.76, 3.11, 3.14, 3.59, 3.91, 3.87, 5.6, 7.24, 7.97, 8.14, 7.71, 7.35, 6.88, 6.14, 6.88, 7.27, 6.98, 6.08, 4.02, 5.43, 6.0, -0.0, -0.45, -0.8, -0.71, -0.65, -0.65, -0.7, -1.74, -2.24, -2.23, -0.76, -0.0, -0.0, 0.53, 10.76, 10.76, 11.06, 11.36, 11.36, 11.03, 11.33, 11.33, 11.33, 10.99, 10.72, 10.4, 10.12, 10.4, 10.69, 10.65, 10.8, 11.22, 10.68, 10.91, 11.12, 11.87, 12.94, 13.57, 13.75, 13.85, 13.86, 13.36, 12.84, 11.95, 9.82, 8.05, 6.71, 4.38, 4.15, 3.6, 2.21, 3.22, 3.58, 3.83, 4.66, 4.85, 3.58, 5.81, 4.34, 2.84, 0.87, 1.13, 2.23, 1.41, 1.55, 1.41, -0.0, -0.0, -0.0, -0.0, -0.0, 5.81, 7.15, 0.88, -0.78, 1.14, 3.39, 3.39, 2.39, 2.39, 3.02, 2.31, 3.53, 5.52, 7.82, 7.59, 5.15, 2.24, 2.4, 3.09, 3.4, 3.2, 4.29, 4.8, 5.36, 6.28, 7.56, 8.67, 5.44, 2.68, 0.0, -0.54, 0.0, 0.0, -1.27, -2.15, -3.97, -3.72, -1.52, -0.0, 0.73, 0.66, 10.76, 10.76, 10.76, 11.36, 11.36, 11.36, 11.33, 11.33, 11.33, 11.33, 10.99, 10.72, 10.4, 10.4, 10.69, 10.69, 11.23, 11.72, 12.03, 12.28, 12.83, 12.6, 13.26, 13.44, 14.11, 14.26, 13.86, 13.86, 13.36, 13.3, 12.02, 9.82, 9.39, 7.15, 6.14, 5.64, 5.2, 3.48, 4.65, 4.15, 4.85, 6.26, 6.26, 5.81, 4.24, 2.48, 1.19, 1.41, 1.41, 1.8, 2.84, 1.6, 1.4, -0.0, -0.0, 0.89, 0.0, 5.09, 8.49, 5.37, 0.8, 2.4, 3.4, 4.71, 3.8, 2.4, 2.54, 2.4, 3.68, 4.75, 6.39, 4.74, -0.0, -3.6, -2.68, -1.0, 0.0, 2.24, 4.38, 5.75, 7.35, 8.3, 8.67, 8.91, 7.6, 5.81, 1.86, 0.0, 0.0, 0.0, -0.76, -2.23, -4.4, -4.22, -2.31, 0.78, 1.47, 1.47, 10.76, 10.76, 10.76, 11.06, 11.36, 11.36, 11.36, 11.92, 11.58, 11.58, 10.99, 10.99, 10.4, 10.69, 10.69, 10.36, 11.23, 11.8, 12.45, 13.48, 13.53, 13.81, 14.16, 13.88, 14.13, 14.26, 14.75, 14.75, 14.74, 14.7, 14.26, 12.95, 10.28, 9.83, 7.15, 4.85, 4.8, 4.19, 5.2, 5.36, 4.47, 4.47, 6.26, 5.2, 4.09, 1.19, 1.3, 1.19, 2.73, 2.73, 3.16, 2.53, 2.53, 2.4, 2.24, 1.58, 1.8, 5.2, 7.06, 6.52, 4.83, 6.01, 5.93, 5.93, 3.76, 1.3, 0.81, 1.3, 3.49, 5.01, 5.2, 3.13, -2.24, -3.6, -1.74, -0.0, 2.4, 5.69, 7.41, 7.69, 8.06, 8.4, 8.14, 7.56, 7.15, 6.98, 5.16, 2.23, 1.66, 0.81, 0.0, -1.4, -2.9, -1.4, -0.0, 1.36, 2.8, 2.8, 10.76, 10.76, 10.76, 11.36, 11.36, 11.36, 11.36, 11.63, 11.58, 11.58, 11.58, 11.28, 11.28, 10.94, 10.69, 10.65, 11.23, 11.8, 12.65, 13.09, 13.71, 14.23, 14.48, 14.34, 14.65, 15.15, 15.63, 15.65, 15.65, 15.65, 15.2, 14.75, 12.5, 11.12, 6.21, 4.92, 4.66, 4.34, 4.02, 5.36, 5.36, 4.02, 5.36, 2.54, 3.48, 1.55, 1.3, 2.4, 3.79, 3.79, 3.79, 4.46, 4.8, 5.2, 5.2, 5.36, 5.36, 6.26, 7.2, 6.87, 7.21, 7.07, 7.2, 6.79, 3.79, -0.0, -0.0, 1.6, 4.09, 5.6, 5.81, 2.68, -1.0, 0.45, 1.58, 3.11, 5.64, 8.12, 8.93, 7.97, 7.68, 7.07, 6.79, 6.22, 6.26, 5.81, 4.66, 3.2, 4.46, 3.74, 3.13, 2.73, -0.0, -0.0, -0.0, 2.12, 2.8, 2.8, 10.76, 10.76, 11.06, 11.36, 11.36, 11.36, 11.36, 11.63, 11.58, 11.58, 11.87, 11.87, 11.28, 10.94, 10.69, 10.88, 11.44, 11.8, 12.27, 12.95, 13.31, 14.03, 14.23, 14.34, 14.65, 15.6, 15.55, 15.55, 15.6, 15.55, 15.54, 15.1, 13.75, 10.96, 8.3, 6.51, 4.85, 4.34, 3.82, 3.58, 2.68, 2.24, 1.79, 1.6, 4.09, 2.73, 2.4, 2.6, 4.11, 4.65, 5.2, 5.2, 4.65, 5.01, 5.75, 5.75, 5.81, 5.75, 6.32, 7.07, 7.76, 7.81, 7.74, 6.79, 4.09, 0.85, -0.0, 1.4, 4.24, 6.71, 8.17, 7.71, 7.15, 7.89, 7.89, 6.44, 7.35, 9.3, 9.92, 9.3, 8.05, 7.47, 6.98, 4.92, 4.47, 5.81, 4.02, 6.07, 5.75, 4.85, 6.0, 4.83, 2.12, 0.71, 1.55, 2.2, 4.22, 4.22, 10.76, 10.76, 11.06, 11.36, 11.36, 11.36, 11.36, 11.36, 11.58, 11.58, 11.58, 11.87, 11.52, 10.94, 10.94, 11.52, 10.88, 11.23, 11.07, 12.28, 13.71, 14.51, 13.71, 13.64, 12.8, 13.94, 12.18, 13.49, 13.29, 13.41, 13.88, 13.57, 13.21, 11.49, 9.11, 7.26, 6.3, 6.3, 6.28, 5.26, 4.85, 4.92, 4.92, 6.14, 5.81, 4.65, 4.11, 4.11, 4.65, 5.6, 5.81, 5.01, 5.01, 5.36, 4.74, 5.06, 5.06, 5.93, 6.52, 7.07, 7.81, 8.17, 7.74, 6.02, 4.22, 1.83, 1.55, 2.68, 4.57, 7.15, 9.39, 12.94, 16.82, 18.06, 15.78, 11.52, 9.36, 9.81, 10.7, 10.62, 8.49, 7.6, 6.26, 5.81, 4.85, 4.73, 5.16, 5.86, 6.02, 4.75, 5.06, 4.56, 2.26, 1.36, 3.09, 3.79, 3.72, 3.72, 10.76, 11.06, 11.06, 11.36, 11.36, 11.36, 11.36, 11.36, 11.58, 11.58, 11.58, 11.87, 11.52, 11.52, 11.28, 11.23, 10.88, 10.59, 10.28, 11.28, 13.43, 13.36, 13.2, 12.51, 11.88, 11.83, 11.75, 11.12, 11.62, 11.87, 12.04, 11.71, 11.4, 10.67, 9.32, 7.84, 7.21, 7.26, 7.74, 7.87, 8.03, 8.49, 8.49, 8.92, 7.87, 7.74, 5.81, 5.6, 5.6, 5.81, 5.6, 5.01, 4.02, 4.02, 3.63, 4.11, 5.69, 5.06, 6.08, 7.81, 7.74, 7.52, 7.06, 5.2, 2.4, 1.63, 2.51, 3.33, 5.82, 7.89, 10.75, 14.7, 18.35, 20.43, 18.33, 13.77, 10.95, 9.84, 10.68, 10.16, 9.72, 8.91, 7.15, 5.81, 6.21, 6.55, 6.79, 6.54, 5.31, 5.09, 4.11, 3.64, 3.0, 2.9, 4.22, 4.56, 4.36, 4.36, 10.76, 11.06, 11.06, 11.36, 11.36, 11.36, 11.36, 11.33, 11.58, 11.58, 11.58, 11.87, 11.52, 11.52, 11.52, 11.8, 11.23, 10.3, 10.3, 11.9, 12.52, 11.72, 12.09, 12.27, 12.7, 13.08, 12.83, 12.11, 11.81, 11.56, 11.24, 10.5, 10.14, 9.77, 8.86, 7.51, 6.94, 7.21, 7.69, 8.33, 8.79, 9.37, 9.83, 10.28, 9.37, 9.32, 7.06, 6.23, 6.58, 6.14, 5.2, 3.76, 4.02, 4.02, 3.45, 2.98, 3.9, 5.06, 6.52, 6.8, 7.06, 6.58, 4.8, 2.6, 1.55, 1.65, 2.51, 3.4, 5.59, 7.02, 9.3, 12.47, 15.61, 16.91, 16.47, 14.17, 10.81, 10.18, 9.62, 9.65, 10.25, 9.81, 8.49, 7.12, 8.01, 6.21, 6.07, 6.36, 6.25, 5.69, 3.48, 3.11, 3.69, 4.46, 5.3, 5.0, 4.74, 4.74, 10.76, 11.06, 11.06, 11.36, 11.36, 11.36, 11.36, 11.33, 11.58, 11.58, 11.87, 11.87, 11.52, 11.52, 11.87, 12.16, 11.8, 11.23, 11.87, 12.65, 12.65, 11.24, 10.96, 11.62, 12.7, 14.22, 14.03, 13.99, 13.26, 12.64, 11.71, 10.94, 10.58, 9.77, 8.87, 7.97, 6.97, 6.79, 7.26, 7.69, 8.21, 8.79, 9.32, 9.82, 9.39, 8.05, 8.49, 7.15, 6.71, 5.7, 3.79, 2.8, 3.76, 4.02, 4.02, 3.68, 3.79, 4.83, 6.01, 6.13, 4.66, 3.58, 2.53, 1.52, 1.65, 2.4, 2.4, 3.2, 3.91, 4.66, 4.6, 7.68, 11.53, 13.05, 6.79, 5.86, 7.09, 7.93, 8.66, 8.49, 9.65, 9.89, 8.94, 7.56, 6.66, 6.21, 5.16, 5.16, 5.69, 5.69, 4.07, 4.22, 4.87, 6.01, 5.72, 4.74, 4.11, 4.11, 11.06, 11.06, 11.06, 11.36, 11.36, 11.36, 11.33, 11.33, 11.58, 11.58, 11.87, 11.87, 11.87, 11.87, 11.87, 12.37, 12.16, 12.37, 12.45, 13.01, 13.2, 12.42, 11.22, 11.22, 12.03, 13.19, 14.03, 14.72, 14.42, 13.73, 12.98, 12.18, 11.4, 10.58, 9.68, 8.77, 7.87, 7.4, 7.4, 7.26, 7.69, 7.74, 8.21, 8.33, 8.42, 7.58, 8.05, 7.15, 6.26, 4.77, 2.98, 2.6, 3.76, 3.76, 2.8, 2.32, 2.47, 3.4, 4.75, 4.01, 3.07, 1.83, 1.6, 1.73, 1.65, 2.4, 2.4, 3.0, 3.2, 3.33, 2.66, 3.68, 12.86, 8.67, 3.13, 1.49, 3.22, 5.13, 6.36, 7.28, 7.85, 8.67, 8.63, 7.56, 6.71, 6.26, 5.31, 4.66, 4.81, 5.59, 4.94, 5.52, 6.28, 6.98, 6.0, 4.75, 3.43, 3.43, 11.06, 11.06, 11.06, 11.06, 11.36, 11.03, 11.33, 11.33, 11.58, 11.58, 11.87, 11.87, 11.87, 11.87, 12.09, 12.37, 12.37, 12.45, 12.65, 13.3, 13.2, 12.7, 12.42, 12.28, 12.28, 12.67, 13.19, 14.03, 14.23, 14.42, 13.73, 13.41, 12.64, 11.71, 10.94, 10.13, 9.23, 8.33, 7.87, 7.84, 7.26, 7.26, 7.26, 7.4, 7.06, 6.6, 7.52, 7.06, 5.81, 4.77, 2.98, 2.4, 2.6, 2.6, 2.6, 2.6, 1.7, 1.72, 2.32, 3.68, 3.47, 1.7, 1.6, 1.63, 1.55, 2.4, 3.09, 4.71, 4.16, 3.22, 4.19, 9.77, 14.73, 14.42, 12.79, 10.4, 8.79, 7.6, 7.07, 6.51, 7.55, 8.24, 8.55, 8.25, 7.45, 6.26, 5.36, 4.0, 3.9, 4.83, 6.42, 6.87, 8.24, 8.23, 6.32, 4.12, 2.79, 2.79, 11.06, 11.06, 11.06, 11.06, 11.36, 11.36, 11.33, 11.33, 11.58, 11.87, 11.87, 11.87, 11.87, 12.09, 12.09, 12.45, 12.45, 12.65, 12.93, 12.93, 12.82, 13.09, 12.7, 12.95, 12.79, 12.79, 13.02, 13.02, 13.53, 13.74, 13.51, 13.69, 12.78, 12.46, 11.71, 10.81, 10.47, 9.57, 9.23, 8.77, 8.33, 7.87, 7.4, 6.94, 6.16, 5.99, 5.81, 5.99, 5.34, 4.44, 3.6, 3.48, 2.73, 1.3, 2.4, 2.6, 1.14, -0.0, -0.0, 2.32, 4.47, 3.22, 2.4, 1.52, 1.65, 2.4, 3.4, 4.03, 4.56, 4.19, 6.51, 8.94, 13.67, 15.61, 16.55, 16.63, 15.59, 13.29, 10.73, 7.6, 7.27, 7.9, 8.59, 8.55, 8.4, 7.42, 5.36, 3.84, 3.79, 4.28, 6.2, 8.44, 9.84, 9.92, 7.92, 3.78, 2.51, 2.51, 11.06, 11.06, 11.06, 11.06, 11.36, 11.36, 11.03, 11.33, 11.58, 11.87, 11.52, 11.87, 11.87, 12.09, 12.45, 12.45, 12.45, 12.93, 12.93, 12.82, 12.82, 12.82, 13.09, 13.09, 13.48, 13.19, 13.02, 13.02, 13.24, 12.83, 13.02, 13.02, 12.78, 12.78, 12.04, 11.56, 11.24, 10.34, 10.04, 9.57, 9.11, 8.79, 8.33, 7.4, 6.61, 5.99, 5.4, 5.4, 5.7, 4.92, 3.98, 2.68, 1.41, -0.0, 1.3, 1.3, -0.0, -0.0, -0.0, 1.19, 3.76, 4.47, 2.47, 1.63, 2.51, 3.2, 4.03, 4.03, 4.95, 5.46, 6.51, 8.87, 11.06, 14.21, 14.95, 15.09, 15.39, 15.72, 12.3, 7.45, 6.39, 6.23, 7.59, 8.58, 8.49, 7.71, 4.87, 3.72, 4.03, 4.37, 5.38, 8.82, 11.44, 11.37, 8.55, 5.09, 3.79, 3.79, 11.06, 11.06, 11.06, 11.06, 11.36, 11.03, 11.33, 11.33, 11.87, 11.52, 11.52, 11.87, 12.09, 12.45, 12.45, 12.65, 12.65, 12.73, 12.37, 12.82, 12.82, 12.82, 13.09, 13.09, 13.48, 13.48, 13.31, 13.53, 13.02, 12.83, 12.6, 12.53, 12.11, 11.87, 11.81, 11.39, 11.39, 11.08, 11.08, 10.66, 10.77, 10.34, 10.01, 8.77, 7.87, 6.51, 5.81, 5.31, 5.09, 4.77, 3.98, 2.63, 0.65, -0.0, -0.0, -0.0, -0.0, -0.0, -0.0, 0.79, 2.6, 3.33, 3.2, 2.51, 3.17, 3.33, 4.16, 5.06, 5.77, 6.8, 7.42, 8.49, 10.28, 11.52, 12.14, 12.86, 14.83, 15.04, 12.77, 6.71, 2.86, 3.64, 4.67, 6.35, 6.59, 6.07, 4.0, 4.65, 4.46, 5.21, 6.01, 8.18, 11.53, 12.47, 10.73, 7.95, 6.0, 6.0, 11.06, 11.06, 11.06, 11.36, 11.36, 11.03, 11.33, 11.33, 11.33, 11.52, 11.87, 11.87, 12.09, 12.45, 12.65, 12.65, 12.73, 12.37, 12.37, 12.65, 12.82, 12.82, 12.82, 13.09, 13.09, 13.48, 13.71, 13.31, 13.53, 13.12, 12.83, 12.6, 12.11, 12.11, 11.81, 11.39, 11.33, 10.91, 10.91, 11.08, 10.66, 10.6, 10.34, 10.01, 9.11, 8.67, 8.64, 6.3, 5.31, 4.6, 4.34, 3.58, 1.24, -0.0, -0.61, -0.0, -0.0, -0.0, -0.0, 0.88, 1.55, 2.47, 2.51, 3.4, 3.2, 4.71, 4.95, 5.15, 5.75, 6.94, 7.89, 8.94, 9.83, 9.83, 10.73, 12.52, 14.3, 14.3, 12.49, 9.8, 3.58, 2.91, 2.8, 5.86, 6.58, 6.66, 5.72, 4.65, 5.3, 6.39, 7.07, 8.05, 10.87, 12.39, 12.25, 10.35, 8.11, 8.11, 11.06, 11.06, 11.06, 11.36, 11.36, 11.03, 11.33, 11.33, 11.33, 11.87, 11.87, 11.87, 12.45, 12.45, 12.65, 12.73, 12.37, 12.37, 12.65, 12.82, 12.82, 12.82, 12.82, 13.09, 13.09, 12.7, 12.95, 13.19, 13.31, 13.12, 13.24, 12.83, 12.6, 12.11, 11.62, 11.39, 11.33, 10.91, 10.91, 10.91, 10.91, 10.6, 10.18, 10.25, 9.54, 8.64, 8.48, 8.3, 7.31, 5.31, 5.02, 3.87, 2.24, -0.0, -0.54, -0.65, -0.0, -0.0, -0.0, -0.0, 0.81, 1.6, 1.72, 2.64, 3.9, 4.71, 5.49, 5.06, 4.8, 5.29, 6.98, 8.63, 10.16, 10.73, 11.66, 13.23, 13.07, 13.32, 13.41, 13.77, 11.52, 7.52, 6.69, 7.51, 9.15, 9.18, 7.85, 6.07, 6.44, 7.03, 7.28, 8.55, 10.38, 11.73, 12.13, 11.2, 9.05, 9.05, 11.06, 11.06, 11.06, 11.36, 11.03, 11.03, 11.33, 11.33, 11.33, 11.87, 11.87, 12.09, 12.45, 12.45, 12.45, 12.73, 12.37, 12.37, 12.65, 12.82, 12.82, 12.82, 12.82, 12.7, 12.7, 12.7, 12.95, 12.56, 12.79, 13.02, 13.02, 13.24, 12.83, 12.53, 12.11, 11.62, 11.21, 11.33, 10.91, 10.91, 10.91, 10.42, 10.42, 9.51, 8.72, 8.82, 8.82, 7.81, 7.08, 6.03, 5.75, 4.93, 3.07, 1.2, -0.0, -0.71, -1.24, -0.53, -0.0, -0.0, -0.0, 0.76, 1.7, 2.6, 3.79, 3.91, 4.83, 4.96, 3.9, 3.48, 4.84, 7.44, 10.8, 13.05, 12.49, 12.14, 12.56, 12.14, 13.39, 15.57, 16.92, 14.65, 12.85, 11.4, 10.66, 11.72, 10.38, 9.34, 9.08, 9.18, 9.34, 10.52, 11.58, 12.14, 12.22, 11.8, 10.38, 10.38, 11.06, 11.06, 11.06, 11.36, 11.03, 11.03, 11.33, 11.33, 11.33, 11.87, 11.87, 11.87, 12.45, 12.45, 12.73, 12.37, 12.37, 12.37, 12.37, 12.82, 12.82, 12.82, 12.27, 12.7, 12.7, 12.7, 12.42, 12.67, 12.62, 13.02, 13.02, 13.02, 13.02, 12.83, 12.33, 12.11, 11.62, 11.21, 11.12, 10.91, 10.91, 10.91, 10.42, 9.92, 9.2, 9.2, 8.95, 7.71, 6.56, 6.03, 5.29, 4.71, 3.09, 1.79, -0.0, -0.0, -0.6, -0.71, -1.16, -0.88, -0.0, 0.88, 1.7, 3.22, 3.11, 3.0, 3.4, 3.8, 5.21, 5.06, 4.01, 6.01, 9.67, 14.3, 16.96, 14.73, 11.62, 11.09, 11.18, 14.28, 16.99, 17.37, 13.57, 12.51, 12.3, 12.11, 11.62, 11.06, 9.86, 9.68, 10.32, 10.84, 11.42, 11.89, 12.18, 11.75, 10.8, 10.8, 10.76, 10.76, 11.36, 11.03, 11.03, 11.03, 11.33, 11.33, 11.33, 11.87, 11.87, 11.87, 12.45, 12.45, 12.37, 12.37, 12.37, 12.37, 12.37, 12.82, 12.65, 12.65, 12.27, 12.54, 12.54, 12.16, 12.42, 12.03, 12.79, 12.11, 12.79, 12.79, 13.02, 12.62, 12.33, 12.33, 12.11, 11.62, 11.21, 11.12, 10.71, 10.71, 10.91, 10.21, 10.11, 10.11, 9.92, 8.72, 7.71, 6.8, 5.86, 4.71, 3.48, 2.5, 2.17, 1.34, 0.95, -0.0, -0.65, -0.59, -0.0, -0.0, 2.4, 2.2, 3.22, 2.88, 2.6, 3.76, 5.37, 7.07, 5.77, 5.77, 8.54, 13.2, 18.66, 19.42, 12.42, 8.0, 8.82, 11.42, 14.75, 15.96, 15.69, 13.73, 13.73, 13.69, 12.6, 11.21, 10.52, 10.32, 10.52, 11.09, 10.71, 11.6, 11.89, 11.42, 10.52, 10.52, 10.76, 10.76, 10.75, 11.03, 11.03, 11.03, 11.33, 11.33, 11.33, 11.58, 11.87, 11.87, 12.45, 12.45, 12.37, 12.37, 12.37, 12.37, 12.37, 12.65, 12.65, 12.65, 12.27, 12.54, 12.54, 12.16, 12.42, 12.03, 12.14, 12.79, 11.6, 11.88, 12.51, 12.51, 12.11, 12.33, 12.33, 11.92, 11.41, 11.62, 11.12, 11.12, 10.71, 10.62, 10.21, 10.21, 10.21, 9.92, 9.21, 8.48, 7.71, 6.67, 5.75, 4.8, 3.87, 3.58, 4.02, 2.6, 1.58, -0.0, -0.0, 0.88, 2.32, 2.4, 2.29, 3.11, 3.47, 4.11, 5.36, 6.52, 6.79, 6.82, 8.14, 11.52, 18.17, 22.44, 16.53, 10.16, 8.49, 10.73, 13.41, 15.63, 16.4, 16.3, 14.13, 13.54, 12.51, 11.56, 11.84, 9.26, 9.81, 10.28, 11.18, 11.18, 11.18, 11.15, 10.26, 10.26, 10.45, 10.45, 10.75, 10.75, 11.03, 11.03, 11.33, 11.33, 11.33, 11.58, 11.87, 12.22, 12.45, 12.09, 12.37, 12.37, 12.37, 12.37, 12.37, 12.65, 12.65, 12.65, 12.27, 12.54, 12.54, 12.16, 12.42, 12.42, 12.42, 12.28, 11.88, 11.99, 11.99, 11.99, 12.11, 12.11, 12.11, 12.33, 11.82, 11.41, 11.41, 11.12, 11.12, 10.71, 10.62, 10.21, 10.21, 10.0, 9.92, 9.7, 9.39, 8.96, 8.42, 7.69, 6.47, 5.78, 5.36, 4.92, 3.98, 2.5, -0.0, -0.0, 1.23, 2.49, 2.29, 3.11, 3.9, 4.29, 5.06, 5.69, 6.73, 7.44, 8.67, 11.18, 15.65, 19.86, 19.58, 16.71, 14.84, 15.05, 15.2, 15.65, 15.65, 15.2, 14.23, 11.51, 11.05, 11.04, 11.15, 8.94, 7.15, 9.36, 10.26, 11.53, 11.15, 11.18, 10.28, 10.28, 10.45, 10.45, 10.75, 10.75, 10.75, 11.03, 11.33, 11.33, 11.33, 11.58, 11.58, 11.87, 12.09, 12.09, 12.16, 12.37, 12.37, 12.37, 12.37, 12.65, 12.65, 12.27, 12.27, 12.27, 12.16, 12.16, 12.16, 12.42, 12.42, 12.42, 12.28, 11.88, 11.99, 11.6, 11.6, 11.6, 11.99, 11.99, 11.6, 11.82, 11.41, 11.41, 11.62, 11.12, 11.12, 10.71, 10.21, 10.42, 9.92, 9.92, 10.18, 10.12, 9.86, 9.57, 8.77, 7.52, 6.68, 5.78, 5.36, 4.6, 1.19, 1.1, 1.32, 1.1, 2.26, 3.68, 4.29, 4.16, 4.95, 6.01, 6.35, 7.64, 9.63, 11.52, 13.41, 15.47, 16.54, 16.85, 17.38, 17.68, 16.48, 15.2, 13.39, 12.52, 12.05, 10.22, 9.82, 10.28, 8.94, 7.6, 6.22, 5.77, 8.8, 10.18, 10.19, 10.19, 10.28, 10.28, 10.75, 10.75, 10.75, 10.75, 10.75, 10.75, 11.33, 11.33, 11.33, 11.58, 11.58, 11.87, 11.87, 11.87, 11.8, 12.16, 12.37, 12.37, 12.65, 12.65, 12.27, 12.27, 12.27, 12.27, 12.16, 12.16, 12.16, 12.42, 12.42, 12.42, 12.67, 12.28, 11.88, 11.99, 11.6, 11.6, 11.6, 11.6, 11.6, 11.6, 11.6, 11.41, 11.41, 11.12, 11.12, 11.12, 10.91, 10.42, 10.42, 10.0, 10.0, 10.18, 10.18, 9.86, 9.68, 8.86, 7.97, 6.68, 5.81, 5.24, 3.73, 1.14, 1.1, 1.6, 2.47, 4.47, 4.01, 3.9, 4.16, 4.95, 6.32, 6.73, 10.16, 12.37, 14.11, 12.87, 13.21, 14.7, 17.25, 19.34, 19.1, 16.03, 12.44, 10.19, 9.74, 9.81, 9.39, 8.05, 6.71, 5.81, 4.92, 4.47, 7.6, 9.39, 10.28, 11.18, 10.26, 10.26, 10.75, 10.75, 10.75, 10.75, 10.43, 10.72, 10.99, 11.33, 11.33, 11.58, 11.58, 11.87, 11.87, 11.52, 11.8, 11.8, 12.37, 12.37, 12.27, 12.27, 12.27, 12.27, 12.27, 12.54, 12.16, 12.16, 12.16, 12.16, 12.42, 12.42, 12.42, 12.28, 12.28, 11.88, 12.11, 11.6, 11.6, 11.6, 11.6, 11.6, 11.6, 11.6, 11.31, 11.62, 10.42, 11.12, 11.12, 10.71, 10.21, 10.42, 10.42, 10.0, 10.18, 9.86, 9.57, 9.23, 8.42, 7.51, 5.81, 5.7, 4.8, 2.84, 1.1, 1.6, 2.47, 3.68, 3.47, 4.16, 4.16, 4.65, 5.69, 6.32, 9.1, 12.56, 14.42, 13.21, 11.18, 12.96, 16.54, 18.33, 17.82, 15.83, 13.09, 10.8, 9.62, 9.74, 10.18, 8.01, 6.66, 6.07, 5.64, 6.11, 7.01, 9.26, 10.16, 11.15, 11.6, 11.62, 10.75, 10.75, 10.43, 10.43, 10.43, 10.72, 10.72, 10.99, 11.33, 11.33, 11.87, 11.52, 11.52, 11.52, 11.8, 11.8, 12.0, 12.0, 12.27, 12.27, 12.27, 12.27, 12.27, 12.16, 11.99, 11.99, 11.99, 12.16, 12.42, 12.42, 12.42, 12.03, 12.28, 12.28, 12.28, 12.11, 11.99, 11.6, 11.6, 11.08, 11.08, 11.08, 10.68, 10.8, 10.42, 11.12, 11.12, 11.12, 10.62, 10.21, 10.42, 10.0, 10.18, 9.86, 9.57, 9.23, 8.87, 8.47, 6.68, 6.16, 5.09, 3.49, 2.49, 1.6, 2.6, 3.45, 3.4, 3.79, 4.95, 4.95, 4.56, 6.01, 8.0, 11.83, 15.99, 15.49, 12.42, 12.42, 13.83, 13.56, 12.5, 12.05, 11.89, 11.28, 11.28, 12.18, 11.89, 10.05, 8.19, 7.98, 7.98, 8.19, 8.67, 10.49, 11.06, 11.53, 12.05, 11.6, 10.43, 10.43, 10.43, 10.43, 10.43, 10.72, 10.72, 10.99, 10.99, 11.33, 11.28, 11.28, 11.28, 11.8, 11.8, 11.8, 11.8, 12.0, 12.27, 12.27, 12.27, 12.27, 12.27, 12.16, 11.99, 11.99, 11.99, 12.16, 12.16, 12.42, 12.42, 12.03, 12.03, 12.28, 12.28, 12.28, 12.11, 11.99, 11.6, 11.6, 11.08, 11.08, 11.08, 10.16, 10.8, 10.71, 10.91, 10.8, 10.4, 10.21, 10.21, 9.92, 10.12, 9.86, 9.57, 9.23, 8.87, 8.49, 7.6, 6.68, 5.7, 4.0, 2.2, 2.32, 2.49, 2.66, 3.33, 3.9, 4.16, 4.95, 4.95, 5.37, 7.07, 9.1, 13.02, 16.11, 16.1, 14.21, 11.18, 7.76, 6.55, 7.6, 10.63, 11.75, 12.66, 13.12, 13.12, 11.71, 10.02, 9.58, 9.28, 8.82, 9.36, 11.15, 11.6, 11.18, 11.62, 12.05, 10.13, 10.13, 10.13, 10.43, 10.72, 10.72, 10.72, 10.99, 10.99, 10.99, 11.28, 11.28, 11.28, 11.8, 11.8, 11.8, 11.8, 11.8, 12.27, 12.27, 12.27, 12.27, 11.9, 11.99, 11.99, 11.99, 11.99, 11.99, 12.16, 12.16, 12.42, 12.03, 12.03, 12.03, 12.28, 12.28, 11.88, 11.75, 11.99, 11.6, 11.6, 11.08, 11.08, 10.68, 10.68, 11.44, 10.4, 9.88, 9.35, 9.6, 9.71, 9.51, 9.51, 9.7, 9.39, 9.11, 8.79, 8.47, 7.6, 7.15, 6.26, 4.27, 3.22, 2.32, 2.32, 2.49, 3.47, 3.68, 3.9, 4.95, 4.95, 5.43, 6.13, 6.7, 8.15, 12.46, 16.71, 19.69, 15.99, 10.68, 7.47, 8.48, 10.6, 13.4, 14.31, 13.25, 11.42, 9.74, 9.36, 9.36, 8.94, 8.49, 8.49, 10.73, 11.18, 11.18, 10.7, 10.7, 10.13, 10.13, 9.82, 10.12, 10.4, 10.4, 10.72, 10.72, 10.99, 11.28, 11.28, 10.94, 10.94, 11.23, 11.8, 11.8, 11.8, 11.8, 12.09, 12.27, 12.27, 12.27, 11.9, 11.99, 11.99, 11.99, 11.99, 11.99, 11.99, 11.99, 12.42, 12.42, 12.42, 12.03, 12.03, 12.28, 12.28, 11.88, 11.75, 11.99, 11.6, 11.6, 11.08, 10.83, 11.22, 11.47, 10.91, 9.71, 9.2, 9.2, 9.01, 9.01, 9.01, 9.21, 8.96, 8.96, 8.33, 7.97, 7.58, 7.13, 6.26, 4.6, 2.86, 2.6, 2.8, 2.49, 3.45, 3.68, 4.29, 5.06, 5.43, 5.46, 6.13, 5.82, 7.07, 9.48, 14.07, 19.26, 20.7, 17.73, 14.65, 13.61, 14.65, 16.47, 15.76, 13.49, 10.05, 8.38, 8.49, 8.49, 8.49, 8.46, 8.01, 9.36, 11.06, 10.62, 10.62, 10.62, 9.82, 9.82, 10.12, 10.12, 10.12, 10.4, 10.4, 10.4, 10.4, 10.94, 10.94, 10.94, 11.23, 11.23, 11.44, 11.8, 11.8, 11.8, 12.09, 12.09, 12.27, 11.9, 11.72, 11.99, 11.99, 11.99, 11.99, 11.99, 11.62, 11.62, 11.62, 12.42, 12.42, 12.42, 12.03, 12.03, 12.14, 11.75, 11.75, 11.75, 11.75, 11.6, 11.6, 11.22, 11.22, 11.6, 11.31, 10.62, 9.71, 9.42, 9.01, 8.72, 8.72, 8.72, 8.3, 8.48, 8.17, 7.87, 7.51, 7.07, 6.26, 4.6, 3.48, 2.6, 2.6, 2.8, 4.02, 4.47, 4.29, 5.06, 5.82, 5.15, 5.46, 6.44, 7.35, 8.4, 11.62, 16.44, 18.87, 18.1, 17.07, 17.26, 18.02, 17.88, 16.24, 13.92, 11.95, 10.49, 9.36, 9.39, 8.91, 8.38, 7.92, 10.02, 10.49, 10.02, 10.02, 10.02, 9.82, 9.82, 10.12, 10.12, 10.12, 10.12, 10.4, 10.4, 10.69, 10.69, 10.69, 10.94, 11.23, 11.23, 11.23, 11.44, 11.44, 11.44, 11.72, 11.72, 11.72, 11.72, 11.72, 11.99, 11.99, 11.99, 11.99, 11.62, 11.62, 11.62, 11.62, 12.16, 12.16, 12.42, 12.03, 12.03, 12.03, 12.14, 11.75, 11.75, 11.75, 11.75, 11.36, 11.6, 11.08, 11.08, 11.31, 10.91, 10.62, 10.42, 9.7, 9.21, 8.79, 8.91, 8.48, 8.17, 7.74, 7.87, 7.51, 7.13, 6.26, 5.09, 4.0, 2.86, 2.8, 3.76, 4.02, 4.01, 4.74, 4.74, 5.37, 5.15, 5.82, 6.44, 7.35, 8.3, 10.68, 13.64, 15.59, 15.37, 16.09, 18.11, 20.24, 19.08, 16.4, 15.31, 15.27, 13.53, 12.05, 10.73, 12.47, 7.28, 7.89, 9.33, 9.33, 9.33, 9.33, 9.33, 10.12, 10.12, 9.8, 9.8, 9.8, 9.8, 10.4, 10.69, 10.69, 10.69, 10.69, 10.69, 11.23, 11.23, 11.23, 11.23, 11.44, 11.72, 11.72, 11.72, 11.72, 11.72, 11.72, 11.72, 11.99, 11.99, 11.99, 11.62, 11.62, 11.62, 11.99, 11.99, 12.16, 12.16, 12.42, 12.03, 12.03, 11.88, 11.88, 11.75, 11.75, 11.75, 11.36, 11.6, 11.08, 11.08, 10.91, 10.91, 10.71, 10.62, 10.42, 10.12, 9.86, 9.39, 9.11, 8.64, 8.3, 7.97, 7.97, 7.6, 6.71, 5.7, 4.6, 3.16, 2.86, 3.76, 3.76, 4.11, 4.29, 4.01, 5.06, 5.06, 5.77, 6.44, 7.35, 7.89, 9.33, 11.87, 12.94, 13.14, 14.76, 18.33, 21.11, 19.08, 17.07, 15.72, 15.53, 14.69, 13.41, 13.82, 11.13, 7.89, 6.64, 7.6, 8.55, 8.14, 8.14, 8.14, 9.5, 9.5, 9.8, 9.8, 9.8, 9.8, 10.09, 10.69, 10.36, 10.36, 10.36, 10.36, 11.23, 11.23, 11.23, 11.23, 11.23, 11.72, 11.72, 11.72, 11.72, 11.72, 11.72, 11.72, 11.99, 11.99, 11.99, 11.62, 11.62, 11.62, 11.99, 11.99, 11.99, 12.16, 12.16, 12.42, 12.42, 11.88, 11.88, 11.75, 11.75, 11.75, 11.36, 11.6, 11.08, 11.08, 10.91, 10.91, 10.62, 10.62, 10.42, 10.0, 10.18, 9.86, 9.57, 9.23, 8.79, 8.42, 8.03, 7.6, 7.15, 5.79, 4.6, 3.43, 2.86, 3.76, 3.76, 4.02, 3.68, 4.29, 4.01, 5.06, 5.82, 6.8, 7.35, 7.89, 8.82, 10.43, 10.87, 11.28, 12.89, 17.08, 20.23, 18.97, 17.85, 16.24, 15.39, 14.3, 12.5, 8.82, 7.6, 6.44, 5.09, 5.72, 6.7, 7.28, 7.28, 7.28, 9.5, 9.5, 9.5, 9.5, 9.8, 10.09, 10.09, 10.09, 10.36, 10.36, 10.36, 10.36, 10.65, 11.23, 11.23, 11.23, 11.23, 11.52, 11.72, 11.72, 11.72, 11.72, 11.72, 11.72, 11.99, 11.99, 11.62, 11.62, 11.62, 11.62, 11.99, 11.99, 11.99, 11.99, 12.16, 12.16, 12.16, 11.88, 11.88, 11.5, 11.75, 11.36, 11.36, 11.47, 11.08, 11.08, 10.91, 10.91, 10.62, 10.62, 10.21, 10.42, 10.18, 10.18, 10.01, 9.57, 9.23, 8.79, 8.42, 8.03, 7.15, 6.26, 4.8, 3.64, 2.86, 4.02, 4.02, 3.45, 3.68, 4.29, 4.74, 5.43, 6.44, 6.44, 7.35, 7.42, 8.0, 9.03, 9.67, 10.29, 11.28, 13.73, 17.11, 18.86, 19.42, 17.59, 15.22, 12.5, 7.48, 6.13, 4.46, 4.43, 4.07, 4.65, 5.72, 6.35, 6.35, 6.35, 9.5, 9.5, 9.19, 9.19, 10.09, 10.09, 10.09, 10.09, 10.09, 10.09, 10.36, 10.36, 10.65, 10.65, 10.88, 10.88, 11.23, 11.52, 11.52, 11.72, 11.72, 11.72, 11.72, 11.72, 11.99, 11.99, 11.62, 11.62, 11.62, 11.99, 11.99, 11.99, 11.99, 11.99, 12.16, 12.16, 12.16, 11.88, 11.88, 11.5, 11.75, 11.36, 11.22, 11.08, 11.08, 11.08, 10.91, 10.91, 10.4, 10.62, 10.21, 10.42, 10.42, 10.18, 9.86, 9.86, 9.57, 9.23, 8.33, 7.97, 7.58, 6.26, 5.24, 3.88, 3.16, 3.63, 4.01, 4.29, 4.29, 4.29, 4.74, 5.15, 5.82, 6.4, 6.44, 7.07, 7.07, 7.69, 8.68, 9.67, 9.9, 10.9, 12.49, 16.06, 19.36, 19.46, 11.99, 8.05, 4.92, 3.58, 3.32, 2.23, 2.2, 3.79, 4.29, 5.37, 5.37, 5.37, 9.5, 9.19, 9.19, 9.19, 9.48, 9.77, 10.09, 10.09, 10.09, 10.09, 10.36, 10.36, 10.65, 10.65, 10.88, 10.88, 10.88, 11.23, 11.52, 11.52, 11.72, 11.72, 11.72, 11.72, 11.72, 11.99, 11.99, 11.62, 11.62, 11.99, 11.99, 11.99, 11.99, 11.99, 11.99, 11.99, 11.99, 11.62, 11.88, 11.5, 11.5, 11.22, 11.22, 11.08, 11.08, 10.68, 10.91, 10.91, 10.4, 10.62, 10.62, 10.42, 10.42, 10.18, 10.12, 9.86, 9.43, 9.11, 8.77, 7.97, 7.58, 6.71, 5.33, 4.11, 3.43, 3.79, 3.63, 3.9, 4.16, 3.79, 4.16, 5.06, 4.81, 5.82, 5.82, 6.06, 6.73, 7.06, 7.69, 8.67, 8.67, 9.05, 9.92, 14.07, 19.67, 18.2, 13.39, 8.91, 5.64, 5.44, 6.11, 3.97, 2.15, 2.29, 3.0, 4.29, 4.29, 4.29, 9.19, 9.19, 9.19, 9.48, 9.48, 9.77, 9.77, 9.77, 9.77, 10.09, 10.09, 10.36, 10.36, 10.65, 10.65, 10.88, 10.88, 10.88, 11.16, 11.16, 11.52, 11.72, 11.72, 11.72, 11.72, 11.72, 11.99, 11.99, 11.99, 11.99, 11.99, 11.99, 11.99, 11.99, 11.99, 11.99, 11.62, 11.62, 11.88, 11.5, 11.34, 11.22, 10.83, 11.08, 11.08, 10.68, 10.91, 10.8, 10.4, 10.62, 10.62, 10.62, 10.42, 10.0, 10.12, 9.7, 9.39, 9.11, 8.77, 7.87, 7.51, 6.71, 5.34, 4.34, 3.35, 2.84, 3.48, 3.22, 3.33, 3.2, 3.79, 4.56, 4.65, 4.29, 4.74, 4.95, 6.39, 6.73, 7.44, 7.67, 8.24, 8.63, 8.63, 12.8, 22.79, 20.1, 14.74, 10.63, 8.38, 7.94, 10.08, 10.26, 5.31, 2.41, 2.29, 3.79, 3.79, 3.79, 9.19, 9.19, 9.19, 9.48, 9.48, 9.48, 9.77, 9.77, 9.77, 10.09, 10.09, 10.36, 10.36, 10.65, 10.65, 10.65, 10.88, 10.88, 11.16, 11.16, 11.16, 11.16, 11.72, 11.72, 11.72, 11.72, 11.72, 11.72, 11.99, 11.99, 11.99, 11.99, 11.99, 11.99, 11.99, 11.62, 11.62, 11.62, 11.5, 11.5, 10.96, 11.22, 10.83, 11.08, 11.08, 10.68, 10.8, 10.8, 10.4, 10.4, 10.62, 10.62, 10.62, 10.42, 10.18, 9.7, 9.39, 9.11, 8.64, 7.87, 7.51, 6.71, 5.36, 4.88, 3.7, 3.07, 2.68, 2.53, 2.6, 3.11, 3.33, 4.42, 4.95, 4.95, 3.9, 4.95, 5.69, 6.39, 7.07, 7.42, 8.0, 8.55, 9.08, 20.05, 23.65, 20.07, 15.96, 12.5, 9.83, 8.91, 10.26, 12.05, 9.26, 3.45, 2.0, 2.35, 2.35, 2.35, 9.19, 9.19, 9.19, 9.48, 9.48, 9.48, 9.48, 9.77, 9.77, 9.77, 10.09, 10.09, 10.36, 10.65, 10.65, 10.65, 10.65, 10.88, 11.16, 11.16, 11.16, 11.16, 11.72, 11.72, 11.72, 11.72, 11.72, 11.72, 11.72, 11.72, 11.99, 11.99, 11.99, 11.99, 11.99, 11.62, 11.62, 11.24, 11.5, 11.34, 10.96, 11.22, 10.83, 10.83, 11.08, 10.68, 10.8, 10.8, 10.4, 10.4, 10.62, 10.62, 10.21, 10.42, 10.0, 9.7, 9.39, 8.96, 8.64, 7.87, 7.51, 6.68, 5.81, 4.89, 3.87, 3.39, 1.58, 1.24, 2.68, 3.35, 3.63, 4.01, 5.06, 4.65, 4.65, 4.95, 5.37, 5.69, 6.44, 6.82, 7.03, 8.0, 13.29, 19.69, 22.2, 19.64, 15.85, 12.5, 8.84, 7.2, 8.4, 10.6, 9.11, 3.6, 1.61, 0.61, 0.61, 0.61, 8.87, 8.87, 9.19, 9.48, 9.48, 9.48, 9.48, 9.77, 9.77, 9.77, 9.77, 9.77, 10.39, 10.65, 10.65, 10.65, 10.65, 10.65, 11.16, 11.16, 11.16, 11.16, 11.16, 11.72, 11.72, 11.72, 11.72, 11.72, 11.72, 11.72, 11.72, 11.99, 11.99, 11.99, 11.62, 11.62, 11.24, 11.07, 11.34, 11.34, 10.96, 11.22, 10.83, 10.83, 11.08, 10.55, 10.55, 10.8, 10.4, 10.4, 10.4, 10.62, 10.21, 10.42, 9.92, 9.7, 9.21, 8.96, 8.64, 7.87, 7.51, 6.68, 5.81, 5.36, 4.44, 3.87, 2.91, 2.15, 3.58, 3.48, 3.79, 3.35, 4.43, 4.29, 4.74, 5.15, 5.06, 5.77, 6.44, 6.82, 6.44, 7.42, 11.62, 16.71, 19.92, 18.66, 16.05, 11.52, 6.26, 3.83, 5.05, 6.85, 5.77, 3.13, 2.24, 1.7, 1.7, 1.7, 8.87, 8.87, 9.19, 9.19, 9.48, 9.48, 9.48, 9.48, 9.77, 9.77, 9.77, 10.06, 10.06, 10.65, 10.65, 10.65, 10.65, 10.65, 10.88, 11.16, 11.16, 11.16, 11.16, 11.72, 11.72, 11.72, 11.72, 11.72, 11.72, 11.72, 11.72, 11.72, 11.99, 11.62, 11.62, 11.62, 11.07, 11.34, 11.34, 10.96, 10.96, 10.83, 10.83, 10.83, 10.94, 10.55, 10.55, 10.55, 10.8, 10.4, 10.4, 10.62, 10.21, 10.42, 9.92, 9.51, 9.21, 8.96, 8.48, 8.17, 7.4, 6.61, 5.79, 5.36, 4.92, 3.98, 3.39, 3.2, 3.2, 4.22, 3.84, 3.35, 3.63, 4.01, 4.74, 4.81, 4.84, 5.82, 6.4, 6.44, 6.44, 8.55, 10.01, 13.57, 18.58, 19.56, 17.51, 13.56, 7.94, 3.58, 2.68, 4.24, 5.6, 5.6, 5.46, 6.44, 6.44, 6.44, 8.87, 8.87, 8.87, 9.19, 9.48, 9.48, 9.48, 9.48, 9.48, 9.77, 10.06, 10.06, 10.06, 10.06, 10.3, 10.65, 10.65, 10.65, 10.65, 11.16, 11.16, 11.16, 11.16, 11.16, 11.72, 11.72, 11.72, 11.72, 11.72, 11.72, 11.72, 11.72, 11.62, 11.62, 11.62, 11.07, 11.07, 11.34, 10.96, 10.96, 10.96, 10.83, 10.83, 10.83, 10.68, 10.55, 10.55, 10.55, 10.8, 10.4, 10.4, 10.21, 10.21, 10.21, 9.92, 9.51, 9.21, 9.21, 8.48, 8.17, 7.69, 6.94, 6.16, 5.78, 5.36, 4.47, 3.98, 3.39, 3.6, 4.57, 3.93, 3.07, 3.35, 3.35, 4.11, 4.43, 4.46, 5.21, 5.82, 6.4, 7.35, 8.4, 9.7, 11.96, 17.27, 20.43, 19.1, 16.3, 12.22, 8.97, 6.54, 6.32, 7.92, 9.27, 9.27, 9.3, 9.3, 9.3, 8.58, 8.58, 8.87, 9.17, 9.48, 9.48, 9.48, 9.48, 9.48, 9.77, 10.06, 10.06, 10.06, 10.06, 10.06, 10.3, 10.3, 10.65, 10.65, 10.65, 11.16, 11.16, 11.16, 11.16, 11.52, 11.72, 11.72, 11.72, 11.72, 11.72, 11.72, 11.62, 11.62, 11.62, 11.07, 11.07, 11.34, 10.96, 10.96, 10.96, 10.41, 10.68, 10.68, 10.68, 10.68, 10.55, 10.55, 10.55, 10.55, 10.8, 10.4, 10.21, 10.21, 10.11, 9.92, 9.51, 9.21, 9.21, 8.48, 8.0, 7.74, 6.94, 6.16, 5.78, 5.34, 4.92, 4.47, 3.98, 3.82, 4.15, 3.58, 3.48, 3.07, 3.07, 4.11, 4.43, 5.21, 5.21, 5.43, 6.4, 7.63, 8.63, 10.25, 11.62, 16.09, 19.67, 20.1, 16.86, 13.88, 11.99, 10.53, 9.34, 9.86, 10.15, 9.74, 9.2, 9.2, 9.2, 8.58, 8.58, 8.58, 8.87, 9.17, 9.17, 9.17, 9.48, 9.48, 9.48, 10.06, 10.06, 10.06, 10.06, 10.06, 10.06, 10.3, 10.3, 10.65, 10.65, 10.88, 11.16, 11.16, 11.16, 11.52, 11.72, 11.72, 11.72, 11.72, 11.35, 11.35, 11.62, 11.62, 11.44, 11.07, 11.07, 11.34, 10.96, 10.96, 10.41, 10.41, 10.68, 10.68, 10.68, 10.68, 10.94, 10.55, 10.55, 10.55, 10.8, 10.4, 10.21, 10.21, 9.71, 9.92, 9.51, 9.42, 9.21, 8.3, 8.48, 8.17, 7.4, 6.47, 6.16, 5.78, 5.33, 4.47, 4.02, 3.98, 3.39, 3.2, 3.58, 3.16, 3.16, 3.48, 4.19, 4.84, 5.75, 6.28, 6.7, 7.21, 8.8, 10.7, 12.07, 15.18, 18.78, 19.67, 17.66, 15.76, 15.04, 13.6, 11.99, 10.79, 10.43, 10.01, 10.01, 10.01, 10.01, 8.58, 8.58, 8.87, 8.87, 8.87, 9.17, 9.17, 9.17, 9.17, 9.48, 9.78, 10.06, 10.06, 10.06, 10.06, 10.06, 10.06, 10.06, 10.3, 10.65, 10.65, 11.16, 11.16, 11.16, 11.16, 11.52, 11.16, 11.35, 11.35, 11.35, 11.44, 11.44, 11.44, 11.07, 11.07, 11.34, 10.96, 10.96, 10.79, 10.41, 10.41, 10.41, 10.68, 10.68, 10.68, 10.68, 10.55, 10.55, 10.55, 10.55, 10.4, 10.0, 10.11, 9.71, 9.51, 9.51, 9.42, 9.21, 8.72, 8.48, 8.17, 7.26, 6.94, 6.47, 6.16, 5.78, 4.92, 4.47, 4.02, 3.54, 3.39, 3.6, 3.58, 4.46, 3.58, 4.22, 4.8, 6.02, 6.51, 6.51, 7.89, 8.9, 10.73, 12.07, 15.2, 17.88, 17.81, 16.09, 15.76, 15.96, 15.04, 12.92, 11.3, 10.6, 10.6, 10.38, 10.38, 10.38, 8.87, 8.87, 8.87, 8.87, 8.87, 8.87, 9.17, 9.17, 9.17, 9.17, 9.46, 9.72, 10.06, 10.06, 10.06, 10.06, 10.06, 10.06, 10.3, 10.3, 10.65, 10.88, 11.16, 11.16, 11.16, 11.16, 11.16, 11.16, 11.16, 11.44, 11.44, 11.44, 11.07, 11.07, 11.07, 11.34, 10.96, 10.96, 10.79, 10.41, 10.41, 10.41, 10.68, 10.68, 10.68, 10.68, 10.55, 10.55, 10.55, 10.16, 10.4, 10.0, 10.11, 9.71, 9.92, 9.51, 9.42, 9.21, 8.72, 8.48, 8.0, 7.69, 7.21, 6.51, 6.04, 5.7, 5.33, 4.92, 4.47, 4.02, 3.53, 3.32, 3.07, 4.46, 4.15, 4.57, 5.09, 6.07, 6.51, 7.11, 7.56, 8.9, 10.28, 11.62, 14.73, 16.82, 16.69, 14.92, 14.68, 15.1, 14.83, 13.75, 12.22, 11.09, 10.18, 10.43, 10.43, 10.43, 8.87, 8.87, 8.87, 8.87, 8.87, 8.87, 9.17, 9.17, 9.17, 9.17, 9.46, 9.72, 10.06, 10.06, 10.06, 10.06, 10.06, 10.06, 10.3, 10.3, 10.65, 10.88, 11.16, 11.16, 11.16, 11.16, 11.16, 11.16, 11.16, 11.44, 11.44, 11.44, 11.07, 11.07, 11.07, 11.34, 10.96, 10.96, 10.79, 10.41, 10.41, 10.41, 10.68, 10.68, 10.68, 10.68, 10.55, 10.55, 10.55, 10.16, 10.4, 10.0, 10.11, 9.71, 9.92, 9.51, 9.42, 9.21, 8.72, 8.48, 8.0, 7.69, 7.21, 6.51, 6.04, 5.7, 5.33, 4.92, 4.47, 4.02, 3.53, 3.32, 3.07, 4.46, 4.15, 4.57, 5.59, 6.07, 6.51, 7.11, 7.56, 8.49, 9.39, 10.7, 13.32, 15.01, 15.61, 14.92, 14.68, 14.68, 15.1, 14.58, 12.81, 11.37, 10.01, 9.49, 9.49, 9.49]}, {"header": {"dx": 0.06612293990616946, "dy": 0.0552356325346848, "nx": 98, "ny": 59, "la1": 35.046912555036876, "la2": 31.78801023549047, "lo1": -121.43107172385933, "lo2": -114.95102361305473, "refTime": "2026041702", "parameterCategory": 1, "parameterNumber": 3}, "data": [-12.56, -12.27, -11.67, -11.36, -11.03, -10.43, -9.8, -8.87, -7.93, -6.98, -5.72, -4.73, -3.4, -1.72, -0.82, -0.81, 0.0, 0.0, 0.0, 0.0, 0.0, 0.0, -0.88, -3.6, -5.59, -6.21, -6.21, -6.0, -6.28, -6.07, -6.2, -5.36, -4.47, -4.02, -3.95, -3.74, -2.86, -4.22, -3.84, -3.79, -4.11, -4.65, -5.44, -5.72, -5.64, -5.29, -5.48, -3.85, -1.54, 0.0, 0.0, 0.76, 1.52, 1.58, 2.34, 2.28, 3.11, 3.04, 3.04, 2.45, 2.37, 2.28, 2.37, 2.37, 2.37, 2.37, 2.31, 3.14, 3.14, 2.39, 1.55, 1.55, 1.5, 1.54, 1.54, 0.75, 0.0, -0.7, -1.58, -1.55, -1.62, -2.31, -2.99, -4.0, -4.92, -4.87, -5.41, -4.6, -3.88, -3.88, -4.0, -3.15, -2.4, 0.0, 2.15, 2.86, 2.86, 2.53, -12.27, -12.27, -11.67, -11.06, -11.03, -10.43, -10.12, -9.17, -8.24, -7.3, -6.34, -5.49, -3.79, -2.2, -2.26, -1.23, -0.81, 0.0, -1.08, -0.88, -1.41, -1.27, -1.13, -3.39, -5.09, -5.46, -5.46, -5.82, -5.82, -5.75, -5.59, -4.85, -3.13, -2.24, -2.12, -2.23, -2.21, -3.16, -3.84, -3.79, -4.74, -5.69, -6.01, -6.42, -6.09, -5.4, -3.85, -1.52, -0.8, 0.0, 0.0, 0.79, 1.52, 2.1, 2.06, 2.28, 2.37, 2.45, 2.31, 2.37, 2.37, 2.28, 2.37, 2.37, 2.37, 3.04, 3.14, 3.07, 2.28, 1.57, 1.55, 1.54, 1.48, 0.8, 0.78, 0.0, 0.0, -0.7, -1.58, -1.55, -1.62, -2.31, -2.99, -4.0, -4.92, -4.87, -5.41, -4.6, -3.88, -3.88, -4.0, -3.15, -2.4, 0.0, 2.15, 2.86, 2.86, 2.53, -12.27, -11.99, -11.67, -11.06, -11.06, -10.75, -9.82, -9.19, -8.53, -7.6, -6.34, -5.1, -4.03, -3.2, -2.35, -1.52, -1.72, -1.6, -1.7, -2.4, -1.66, -2.48, -2.84, -2.97, -4.77, -5.15, -5.46, -5.46, -5.82, -6.16, -5.75, -5.16, -3.95, -2.24, -3.47, -2.98, -3.16, -3.79, -4.46, -4.74, -5.69, -6.28, -6.14, -6.05, -5.41, -3.95, -1.6, 0.0, 0.0, 0.0, 0.0, 0.75, 0.79, 1.63, 2.1, 2.44, 2.37, 1.6, 1.55, 1.6, 2.28, 2.28, 3.11, 3.11, 3.96, 3.14, 3.17, 2.35, 1.53, 1.57, 1.51, 0.78, 0.8, 0.8, 0.0, 0.0, -0.79, -0.77, -2.16, -2.37, -2.35, -3.27, -3.27, -4.83, -5.7, -5.62, -5.62, -5.76, -4.71, -4.71, -4.83, -3.91, -1.47, 0.76, 2.21, 2.5, 2.21, 1.88, -11.99, -11.67, -11.67, -11.38, -11.06, -10.45, -9.82, -9.5, -8.56, -7.9, -6.95, -6.32, -5.59, -3.79, -3.0, -2.51, -2.35, -2.64, -2.47, -2.6, -2.4, -2.4, -2.73, -4.0, -5.09, -5.24, -5.15, -4.81, -5.43, -6.16, -6.28, -6.51, -6.07, -5.36, -4.34, -4.4, -4.4, -4.65, -6.08, -6.06, -6.32, -6.24, -4.96, -4.0, -3.32, -1.52, -0.73, 0.0, 0.0, 0.0, 0.0, 0.75, 0.79, 0.79, 0.79, 0.8, 0.77, 1.5, 1.55, 1.6, 2.37, 3.11, 3.82, 3.96, 3.14, 2.33, 1.53, 1.38, 2.06, 2.09, 1.55, 1.54, 0.77, 0.7, 0.0, -0.76, -1.57, -1.57, -2.25, -2.25, -2.9, -3.09, -3.91, -4.83, -6.14, -6.42, -6.42, -6.05, -5.64, -5.64, -3.91, -2.2, 0.0, 1.61, 2.5, 2.5, 1.88, 1.16, -11.99, -11.67, -11.67, -11.38, -11.06, -10.45, -10.13, -9.5, -8.87, -8.22, -7.27, -6.59, -5.59, -4.42, -3.79, -4.03, -3.47, -3.2, -3.33, -4.01, -3.76, -3.79, -3.48, -3.48, -4.92, -5.75, -5.59, -5.75, -5.81, -6.02, -6.51, -6.98, -7.42, -6.65, -6.71, -6.23, -6.23, -5.59, -7.07, -7.07, -5.37, -4.16, -3.2, -2.4, -2.4, -0.84, -0.76, 0.0, 0.0, 0.0, 0.0, 0.0, 0.0, 0.0, 0.0, 0.76, 0.8, 1.54, 2.22, 2.37, 2.99, 3.19, 3.82, 3.04, 2.25, 1.57, 1.51, 2.31, 3.14, 3.25, 3.87, 3.11, 2.76, 1.52, 0.0, -1.41, -2.31, -1.6, -1.52, -2.15, -2.75, -3.2, -4.71, -5.49, -6.24, -5.94, -6.24, -6.24, -5.21, -4.16, -1.6, 0.0, 1.49, 1.9, 1.9, 1.88, 1.16, 0.61, -11.67, -11.67, -11.38, -11.06, -10.76, -10.45, -10.13, -9.5, -9.17, -8.24, -7.59, -6.92, -6.32, -5.24, -4.68, -4.56, -4.03, -4.42, -4.56, -5.69, -6.18, -6.28, -6.14, -5.7, -5.36, -5.81, -6.13, -6.23, -5.81, -6.14, -6.21, -6.65, -6.71, -7.15, -6.22, -6.21, -5.75, -5.06, -6.44, -7.03, -6.4, -4.11, -3.11, -2.51, -1.55, -0.74, -0.74, 0.0, 0.0, 0.0, 0.0, 0.0, 0.0, 0.0, 0.79, 0.76, 1.58, 2.28, 2.37, 2.37, 3.19, 3.07, 2.37, 1.55, 0.78, 1.5, 1.54, 3.19, 3.96, 4.55, 4.71, 4.65, 3.91, 2.44, 0.0, -0.8, -1.5, -1.54, -0.77, -1.6, -2.51, -3.79, -4.83, -5.59, -6.01, -6.32, -6.32, -4.83, -2.3, -0.57, 0.6, 1.58, 1.86, 1.9, 1.9, 0.61, 0.0, 0.65, -11.67, -11.67, -11.38, -11.06, -10.76, -10.45, -10.13, -9.82, -9.19, -8.53, -7.86, -7.51, -6.24, -5.59, -5.46, -4.83, -5.21, -5.36, -5.59, -6.01, -6.01, -6.79, -6.7, -6.26, -5.7, -5.81, -6.0, -6.36, -6.36, -6.51, -6.61, -6.26, -6.21, -6.02, -5.64, -5.75, -5.59, -3.48, -3.72, -5.75, -4.77, -3.39, -2.23, -1.27, 0.0, 0.0, 0.0, 0.0, 0.0, 0.0, 0.0, 0.77, 0.74, 1.54, 1.56, 2.25, 2.34, 2.28, 2.37, 2.28, 1.58, 1.58, 0.8, 0.0, 0.77, 2.34, 4.01, 4.68, 4.75, 4.81, 4.81, 3.91, 2.19, 0.77, 0.0, 0.0, -0.74, -0.79, -0.83, -0.79, -2.26, -4.03, -5.59, -5.59, -5.69, -5.72, -4.01, -1.24, 0.0, 0.89, 1.27, 1.7, 1.26, 1.24, 0.54, 0.0, 0.54, 1.86, -11.67, -11.38, -11.38, -11.06, -10.76, -10.45, -9.84, -9.82, -9.19, -8.85, -8.22, -7.81, -6.95, -5.89, -6.69, -5.94, -5.86, -5.76, -5.94, -5.59, -4.71, -4.37, -4.71, -4.65, -4.15, -2.54, -4.8, -5.81, -6.23, -6.79, -7.06, -7.15, -6.61, -5.81, -5.44, -5.16, -3.13, -0.0, 0.0, -0.89, 0.0, 0.0, 0.0, 0.0, 1.0, 1.13, 1.6, 1.55, 1.55, 2.33, 1.65, 2.44, 2.47, 2.39, 2.41, 1.58, 1.58, 0.8, 0.0, 0.0, 0.0, 0.0, 0.0, 0.79, 3.11, 5.41, 6.09, 5.51, 3.91, 3.82, 3.19, 1.52, 0.76, 0.0, 0.0, 0.0, 0.0, 0.0, -0.79, -1.65, -2.06, -3.47, -4.02, -3.48, -2.23, -1.6, -0.45, 0.0, 0.89, 1.34, 0.89, 0.63, 0.0, 0.0, 0.0, 0.0, 1.26, 2.6, -11.38, -11.38, -11.06, -11.06, -10.76, -10.45, -9.84, -9.82, -9.5, -9.17, -8.82, -8.73, -8.94, -8.42, -7.35, -7.35, -7.35, -6.64, -6.32, -6.01, -5.69, -4.71, -4.4, -3.36, -3.27, -2.48, -1.34, -1.6, -3.82, -4.77, -4.47, -4.47, -3.82, -3.39, -3.22, -2.23, -0.0, 2.21, 2.24, 0.89, 1.34, 1.6, 1.9, 2.21, 1.98, 2.53, 2.16, 2.32, 3.4, 3.91, 4.2, 3.15, 2.47, 2.39, 1.5, 0.79, 0.0, 0.0, -0.76, -0.76, -1.52, -1.56, 0.0, 3.27, 6.53, 7.08, 6.33, 5.51, 3.85, 3.16, 1.56, 0.68, 0.0, -0.7, -0.7, -0.76, -0.78, -0.77, -1.58, -2.12, -1.47, -2.0, -1.2, -0.45, -0.0, -0.0, 0.4, 0.63, 0.63, 0.45, 0.0, 0.0, 0.0, 0.0, 0.0, 1.26, 2.17, 2.68, -11.38, -11.06, -11.06, -10.76, -10.76, -10.45, -9.84, -9.82, -9.8, -9.48, -9.46, -9.72, -8.82, -9.3, -8.73, -8.42, -8.42, -8.42, -8.34, -8.4, -8.15, -8.8, -8.94, -7.9, -6.69, -5.69, -1.9, 0.0, -0.0, -0.89, 0.0, -0.0, 0.0, 0.0, 0.0, 0.0, 1.34, 2.68, 2.24, 2.21, 2.41, 2.68, 2.53, 2.2, 1.55, 1.55, 2.47, 3.2, 4.03, 3.91, 3.8, 3.15, 2.35, 1.6, 0.81, 0.81, 0.0, -0.81, -1.68, -2.28, -1.6, 0.0, 4.47, 7.41, 8.65, 7.9, 7.08, 6.44, 4.28, 3.15, 1.67, 0.0, -0.68, -1.39, -2.06, -2.88, -3.02, -3.11, -2.76, -2.9, -2.98, -1.34, -0.0, 0.57, 0.8, 0.8, 0.6, -0.0, -0.0, -0.0, -0.45, -0.63, -0.95, 0.0, 0.63, 1.79, 2.24, 2.24, -11.06, -11.06, -11.06, -10.76, -10.76, -10.45, -10.13, -10.13, -9.82, -9.8, -9.77, -9.77, -9.77, -9.46, -8.93, -7.97, -7.68, -7.44, -7.44, -8.0, -9.3, -10.0, -10.4, -9.65, -9.67, -5.95, -2.8, 0.0, 0.89, -0.0, 0.0, 0.89, 1.34, 1.34, 1.34, 0.0, 0.95, 2.0, 2.53, 2.53, 3.22, 2.53, 2.4, 2.49, 1.23, 0.73, 2.4, 3.22, 3.47, 3.33, 3.2, 4.03, 4.03, 4.03, 4.16, 3.9, 3.33, 1.72, -0.78, -1.6, 0.79, 5.82, 8.95, 9.84, 10.28, 9.92, 10.29, 9.67, 7.02, 4.83, 3.09, 0.67, -1.43, -2.76, -4.32, -4.32, -5.0, -4.8, -4.71, -4.6, -4.36, -2.12, -0.0, 0.71, 0.57, 0.57, -0.0, -0.0, -0.95, -1.2, -1.34, -1.34, -0.89, 0.0, 0.89, 1.34, 1.79, 1.79, -11.36, -11.06, -11.06, -10.76, -10.76, -10.45, -10.13, -9.84, -10.13, -9.82, -9.8, -9.8, -9.8, -9.8, -8.58, -6.98, -5.72, -5.44, -5.72, -6.08, -5.7, -5.7, -5.09, -6.69, -4.71, -3.4, -2.49, 0.0, 1.74, 0.0, 0.0, 1.26, 2.24, 1.79, 1.6, 1.26, 1.26, 2.6, 2.53, 3.35, 3.22, 3.22, 2.29, 2.49, 1.14, 1.6, 2.84, 3.79, 2.98, 2.4, 3.63, 5.46, 6.44, 7.35, 7.35, 7.35, 7.42, 5.06, 0.0, 1.34, 7.15, 10.45, 11.09, 11.09, 11.62, 12.98, 13.64, 12.29, 11.09, 8.67, 6.32, 3.51, 0.0, -3.78, -5.41, -6.2, -6.31, -6.42, -6.51, -5.78, -5.3, -2.53, 1.24, 1.26, 0.57, -0.0, -0.6, -1.26, -1.7, -2.17, -2.68, -2.12, -0.6, 0.6, 1.7, 1.79, 1.79, 1.79, -11.36, -11.06, -11.06, -10.76, -10.76, -10.45, -10.13, -10.13, -9.84, -10.13, -9.82, -10.12, -10.12, -9.82, -9.21, -7.96, -6.31, -5.04, -5.06, -5.04, -4.54, -3.99, -2.8, -2.28, -1.12, 0.0, 0.0, 1.09, 1.73, 1.16, 0.0, 0.88, 1.74, 1.74, 1.9, 2.21, 2.53, 3.16, 3.16, 3.07, 2.4, 2.4, 1.55, 0.73, 0.0, 1.58, 3.82, 3.72, 3.16, 3.72, 4.66, 5.59, 6.07, 6.66, 7.06, 7.21, 7.63, 6.28, 0.87, 3.47, 9.8, 10.93, 10.95, 10.52, 11.66, 12.58, 12.92, 13.29, 12.37, 11.2, 9.66, 7.18, 2.44, -2.31, -6.53, -7.64, -7.68, -7.64, -7.27, -6.28, -4.56, 0.0, 3.11, 3.0, 1.34, -0.0, -1.6, -2.12, -2.6, -2.6, -3.51, -2.6, -0.0, 1.49, 3.04, 3.13, 3.13, 2.63, -11.36, -11.36, -11.06, -10.76, -10.76, -10.45, -10.13, -10.13, -10.13, -9.84, -10.13, -9.82, -10.12, -9.82, -9.5, -8.87, -7.96, -6.5, -5.62, -5.17, -4.68, -3.96, -3.53, -2.83, -1.72, -0.58, 0.0, 1.16, 1.75, 1.71, 0.58, 0.0, 0.0, 0.88, 1.66, 1.8, 2.21, 2.41, 2.68, 2.3, 1.55, 0.81, 0.0, 0.0, 1.08, 2.84, 3.47, 3.39, 3.35, 4.24, 4.66, 4.24, 4.02, 4.02, 4.02, 3.58, 3.58, 2.32, 0.0, 4.38, 9.36, 10.22, 10.18, 10.18, 9.54, 9.54, 9.83, 10.02, 10.6, 8.67, 8.6, 7.59, 4.29, 0.0, -4.8, -6.94, -6.8, -6.4, -5.15, -2.4, 0.0, 2.35, 2.75, 2.17, 2.04, 0.0, -1.34, -2.17, -3.13, -3.13, -3.82, -1.61, 0.66, 4.46, 6.07, 5.81, 4.41, 3.97, -11.36, -11.36, -11.36, -10.76, -10.76, -10.76, -10.13, -10.13, -10.13, -10.13, -9.84, -10.13, -9.82, -9.82, -9.5, -9.5, -8.86, -8.2, -6.88, -6.43, -5.25, -4.58, -4.03, -3.36, -2.35, -1.19, 0.0, 0.0, 1.11, 1.73, 1.14, 0.58, 0.0, 0.0, 1.23, 1.41, 2.6, 3.48, 3.49, 1.66, 0.81, 0.0, 0.0, 0.0, 1.41, 3.72, 4.77, 4.24, 4.24, 3.6, 2.84, 3.2, 2.8, 2.68, 2.24, 0.0, -1.79, -1.7, 0.0, 5.37, 8.01, 7.21, 6.8, 7.07, 7.6, 7.21, 7.63, 7.21, 6.13, 5.93, 5.59, 4.74, 3.58, 1.8, -0.0, -2.0, -1.34, 0.0, 0.88, 2.47, 3.27, 3.32, 2.17, 0.74, 0.0, 0.0, -1.24, -2.24, -4.92, -5.36, -3.04, -1.49, 2.2, 6.32, 7.71, 6.21, 5.16, 5.16, -11.36, -11.36, -11.36, -11.06, -10.76, -10.76, -10.76, -10.13, -9.84, -9.84, -9.84, -9.84, -9.82, -9.5, -9.5, -9.21, -8.86, -8.85, -7.92, -7.03, -5.88, -5.18, -4.13, -3.47, -2.26, -1.14, 0.0, 0.0, 0.59, 1.18, 1.19, 0.56, 0.0, 0.0, 0.0, 0.81, 2.4, 3.35, 2.6, 0.0, 0.0, 0.0, 0.0, 1.3, 2.73, 4.77, 5.2, 4.77, 4.09, 4.09, 3.16, 2.53, 2.53, 1.2, 0.0, -1.58, -3.6, -2.6, 1.18, 5.44, 6.44, 6.01, 4.75, 4.75, 5.01, 5.2, 4.85, 5.2, 4.65, 3.76, 2.6, 0.0, -0.0, 1.8, 2.6, 2.24, 4.8, 5.69, 5.76, 5.38, 5.64, 4.2, 2.44, 0.76, 0.0, -1.55, -1.47, -1.49, -4.15, -4.85, -2.68, 2.8, 7.98, 8.38, 8.05, 6.11, 5.6, 5.6, -11.36, -11.36, -11.36, -10.76, -10.76, -10.76, -10.76, -10.47, -9.84, -9.84, -9.84, -9.5, -9.5, -9.21, -9.5, -8.87, -8.86, -8.85, -8.43, -7.73, -6.56, -5.34, -4.63, -3.44, -1.76, -1.17, -0.6, 0.0, 0.0, 0.0, 0.0, 0.0, -0.57, -1.11, -0.78, 0.0, 1.55, 1.08, 0.0, 0.0, 0.0, 0.0, 0.0, 0.85, 3.48, 4.66, 5.2, 4.8, 3.79, 3.79, 3.79, 2.98, 2.4, 2.6, 2.6, 0.0, 0.0, 0.0, 3.6, 5.72, 6.01, 4.71, 3.6, 2.26, 3.79, 3.13, 3.58, 3.2, 2.73, 2.8, 0.0, -3.58, -2.0, 0.0, 1.58, 5.43, 8.06, 8.93, 8.12, 7.18, 6.14, 4.71, 2.26, 0.69, 0.0, 0.0, -1.55, -1.6, -2.98, -1.49, 0.0, 4.09, 8.05, 8.49, 7.15, 6.36, 5.6, 5.6, -11.36, -11.36, -11.06, -10.76, -10.76, -10.76, -10.76, -10.47, -9.84, -9.84, -9.49, -9.49, -9.5, -9.21, -9.5, -8.59, -8.58, -8.85, -8.18, -7.06, -6.36, -5.85, -5.34, -3.44, -1.76, -1.2, -1.73, -1.73, -1.16, -1.73, -1.79, -1.74, -1.72, -2.19, -1.78, -1.63, -0.81, -1.08, -1.27, 0.0, 0.0, 0.0, 0.0, 0.8, 2.73, 4.09, 4.8, 5.2, 4.11, 3.49, 2.6, 2.6, 3.49, 3.76, 3.45, 3.45, 2.32, 3.45, 4.22, 4.71, 4.44, 3.35, 2.21, 2.26, 2.73, 2.54, 2.68, 2.8, 1.41, 0.0, -2.33, -2.31, 0.0, 1.58, 3.15, 4.83, 6.53, 6.97, 6.87, 6.2, 4.83, 2.99, 1.55, 0.0, 0.0, 0.0, 0.0, -1.52, -0.82, 0.81, 3.0, 6.44, 7.76, 8.46, 6.98, 5.86, 6.32, 6.32, -11.36, -11.36, -11.06, -10.76, -10.76, -10.76, -10.76, -10.76, -9.84, -9.84, -9.84, -9.49, -9.22, -9.21, -9.21, -9.22, -8.59, -8.86, -7.57, -6.43, -6.56, -6.96, -6.56, -5.62, -4.0, -3.22, -2.9, -3.17, -3.91, -3.5, -3.47, -2.83, -2.3, -1.72, -2.28, -2.23, -2.29, -2.29, -2.35, -1.05, -0.81, 0.0, 0.0, 1.23, 2.32, 3.49, 4.11, 4.11, 3.49, 2.8, 2.32, 3.76, 3.76, 4.02, 4.74, 5.06, 5.06, 4.75, 5.44, 4.71, 3.35, 2.33, 2.21, 1.72, 2.53, 4.57, 4.66, 3.58, 1.83, 0.0, 0.0, 0.81, 2.4, 3.14, 3.16, 1.54, 0.78, 0.75, 0.76, 1.52, 0.0, 0.0, 0.0, 0.0, 0.81, 1.35, 1.47, 2.2, 1.72, 4.07, 5.06, 6.08, 6.79, 7.48, 6.94, 6.07, 4.46, 4.46, -11.36, -11.06, -11.06, -10.76, -10.76, -10.76, -10.76, -10.76, -9.84, -9.84, -9.84, -9.49, -9.22, -9.22, -9.5, -8.86, -8.59, -8.23, -7.9, -7.25, -7.11, -8.14, -8.4, -7.82, -7.13, -6.31, -5.48, -4.68, -4.65, -3.96, -3.44, -2.93, -2.28, -1.12, -1.16, -1.81, -2.4, -2.23, -2.21, -1.69, -0.57, 0.0, 0.0, 0.59, 1.69, 2.21, 2.32, 2.8, 2.8, 2.32, 2.8, 3.76, 5.36, 5.36, 4.54, 4.11, 5.69, 5.06, 4.56, 3.35, 2.21, 1.07, 1.18, 2.6, 4.8, 6.51, 6.7, 5.82, 4.16, 3.15, 3.07, 3.87, 3.99, 2.36, 0.0, -1.53, -3.91, -5.3, -3.29, -1.56, -1.5, -0.74, 0.0, 0.0, 0.78, 1.45, 2.26, 2.9, 3.32, 4.36, 4.11, 5.09, 6.0, 6.54, 6.32, 6.08, 5.09, 5.09, -11.36, -11.06, -11.06, -10.76, -10.76, -10.76, -10.76, -10.13, -9.84, -9.84, -9.84, -9.49, -9.22, -9.22, -9.22, -8.85, -8.86, -8.59, -8.59, -8.72, -8.61, -8.2, -8.46, -8.18, -7.5, -6.82, -5.25, -4.62, -4.13, -3.47, -2.96, -2.21, -1.69, -1.15, -1.18, -1.16, -1.73, -2.4, -2.37, -1.67, -1.65, -0.55, 0.0, 0.0, 0.59, 1.16, 1.18, 2.49, 1.32, 1.23, 2.6, 5.01, 5.36, 5.36, 5.75, 4.46, 5.46, 5.06, 5.44, 3.4, 1.18, 1.32, 2.4, 5.2, 6.98, 7.42, 6.7, 6.8, 6.39, 6.24, 6.97, 7.01, 5.46, 1.61, -1.57, -5.51, -9.37, -9.4, -8.01, -5.63, -3.16, -0.75, 0.0, 0.71, 0.8, 0.78, 1.52, 2.12, 3.47, 3.55, 3.48, 5.43, 6.64, 6.7, 6.06, 5.72, 4.74, 4.74, -11.36, -11.06, -11.06, -10.76, -10.76, -10.76, -10.76, -10.13, -9.84, -9.84, -9.49, -9.49, -9.22, -9.22, -9.49, -9.12, -8.85, -8.86, -9.49, -9.2, -8.43, -7.31, -6.92, -7.55, -7.5, -6.52, -5.85, -4.66, -4.03, -2.87, -2.93, -2.3, -1.76, -1.15, -1.11, -1.14, -1.61, -2.26, -2.23, -2.37, -2.19, -1.65, -1.1, -0.58, 0.0, 0.0, 0.0, 0.0, 0.0, 1.14, 3.79, 5.6, 5.01, 5.36, 5.36, 6.13, 6.07, 6.44, 6.01, 3.68, 1.55, 2.68, 4.22, 6.07, 7.42, 7.21, 7.21, 6.4, 7.03, 8.15, 9.2, 9.88, 7.69, 3.07, -5.1, -7.33, -9.21, -10.81, -10.82, -9.2, -5.63, -2.82, 0.0, 0.76, 0.74, 0.78, 1.47, 1.47, 3.55, 3.55, 4.75, 6.32, 6.96, 6.01, 5.0, 4.74, 4.11, 4.11, -11.06, -11.06, -11.06, -10.76, -10.76, -10.76, -10.13, -10.13, -9.84, -9.84, -9.49, -9.49, -9.49, -9.49, -9.49, -8.83, -9.12, -8.83, -9.48, -9.47, -8.4, -7.1, -6.5, -6.5, -6.88, -6.6, -5.85, -5.3, -4.81, -4.01, -3.39, -2.9, -2.28, -1.76, -1.71, -1.75, -1.69, -1.71, -1.71, -2.23, -2.37, -2.21, -2.19, -1.67, -1.12, -0.58, 0.0, 0.0, 0.0, 1.19, 4.46, 5.2, 5.01, 5.01, 5.6, 5.81, 5.75, 6.8, 5.93, 4.81, 3.84, 4.57, 5.59, 6.94, 7.42, 7.21, 7.21, 6.0, 6.4, 5.82, 6.64, 6.13, 1.61, 2.17, 0.0, -2.23, -4.84, -7.32, -9.19, -10.19, -8.57, -5.52, -2.35, -0.76, 0.0, 0.0, 0.76, 1.55, 4.01, 6.39, 6.35, 7.59, 6.98, 5.59, 4.67, 4.07, 4.12, 4.12, -11.06, -11.06, -11.06, -11.06, -10.76, -10.45, -10.13, -10.13, -9.84, -9.84, -9.49, -9.49, -9.49, -9.49, -9.21, -8.83, -8.83, -9.48, -9.2, -9.07, -8.4, -7.5, -7.1, -6.43, -6.43, -6.64, -6.6, -5.85, -5.34, -4.81, -4.01, -3.5, -2.87, -2.93, -2.3, -1.79, -1.73, -1.67, -1.69, -1.81, -2.23, -2.23, -2.23, -1.71, -1.18, -1.2, -1.07, -1.18, 0.0, 1.19, 4.46, 4.8, 5.2, 5.2, 5.2, 5.2, 5.09, 6.02, 5.81, 6.13, 5.21, 5.09, 5.59, 6.51, 6.98, 7.21, 6.94, 7.07, 5.82, 4.84, 3.35, -1.09, 0.78, 4.81, 6.4, 5.2, 3.3, 0.0, -4.71, -7.96, -8.24, -7.55, -5.7, -3.44, -1.49, 0.0, 0.0, 2.0, 5.46, 8.05, 8.03, 8.24, 7.55, 6.17, 4.22, 3.43, 3.49, 3.49, -11.06, -11.06, -11.06, -11.06, -10.76, -10.76, -10.13, -10.13, -9.84, -9.49, -9.49, -9.49, -9.49, -9.21, -9.21, -9.48, -9.48, -9.2, -8.81, -8.81, -8.16, -7.73, -7.5, -7.06, -6.4, -6.4, -5.92, -5.92, -5.88, -5.38, -4.7, -4.17, -4.07, -3.56, -2.93, -2.84, -2.33, -2.25, -1.73, -1.75, -1.67, -1.69, -1.71, -1.73, -1.12, -1.8, -2.32, -1.8, -0.53, 0.55, 1.8, 3.48, 4.09, 5.2, 4.8, 5.2, 5.7, 4.92, 4.47, 5.81, 5.59, 4.84, 4.8, 6.07, 7.42, 7.21, 6.8, 6.44, 6.08, 3.35, 1.63, 0.0, 2.28, 5.46, 7.88, 8.71, 7.8, 3.91, 0.0, -3.8, -7.27, -7.9, -7.15, -5.7, -3.06, -1.65, 0.0, 3.07, 6.07, 7.85, 9.3, 9.84, 8.44, 6.87, 5.04, 3.15, 3.14, 3.14, -11.06, -11.06, -11.06, -11.06, -10.76, -10.76, -10.45, -10.13, -9.84, -9.49, -9.22, -9.49, -9.49, -9.21, -9.48, -9.48, -9.48, -8.81, -8.81, -8.16, -8.16, -8.16, -7.73, -7.73, -7.03, -6.6, -5.92, -5.92, -5.42, -5.25, -4.74, -4.74, -4.07, -4.07, -3.44, -3.47, -2.96, -2.87, -2.23, -2.25, -2.28, -1.65, -1.67, -1.71, -1.1, -1.8, -2.16, -2.16, -1.14, 0.0, 0.57, 1.61, 4.24, 4.92, 5.2, 5.2, 5.36, 5.36, 5.36, 4.77, 5.01, 5.59, 5.75, 6.51, 6.7, 6.4, 6.44, 6.44, 5.77, 3.9, 1.63, 1.11, 1.58, 3.95, 7.08, 8.74, 9.1, 6.43, 2.31, -1.49, -5.59, -7.61, -7.59, -6.44, -4.96, -2.31, 0.7, 4.46, 6.44, 7.28, 7.69, 9.5, 8.58, 7.11, 5.7, 4.36, 3.79, 3.79, -11.06, -11.06, -11.06, -11.06, -10.76, -10.45, -10.13, -10.13, -9.49, -9.22, -9.22, -9.49, -9.21, -9.48, -9.48, -9.2, -9.2, -9.09, -8.83, -8.16, -8.16, -8.16, -7.73, -7.73, -7.03, -7.03, -6.36, -5.88, -5.92, -5.25, -4.58, -4.77, -4.62, -3.96, -4.13, -3.99, -3.99, -3.5, -3.5, -3.37, -2.99, -2.87, -2.35, -1.75, -1.69, -1.63, -2.32, -2.36, -1.7, -1.19, -0.57, 0.53, 2.6, 3.13, 4.02, 4.02, 4.92, 4.92, 4.02, 3.95, 5.2, 5.82, 6.4, 6.7, 7.4, 5.82, 5.82, 5.06, 4.95, 3.4, 1.65, 0.0, 0.0, 1.54, 4.55, 7.23, 6.24, 4.3, 2.25, 0.0, -2.15, -5.09, -6.0, -5.64, -4.61, -1.52, 2.0, 5.43, 6.7, 6.7, 6.01, 5.46, 7.69, 7.01, 6.44, 5.78, 4.67, 4.67, -11.06, -11.06, -11.06, -10.76, -10.76, -10.45, -10.13, -10.13, -10.13, -9.22, -9.49, -9.49, -9.21, -9.48, -9.2, -9.2, -9.09, -8.83, -8.83, -8.43, -8.16, -8.16, -8.16, -7.73, -7.73, -7.03, -6.56, -6.36, -5.88, -5.7, -5.25, -4.58, -4.62, -4.62, -4.13, -3.99, -4.17, -4.02, -4.02, -3.5, -3.37, -3.53, -2.87, -2.35, -2.28, -2.17, -2.3, -2.29, -2.36, -1.73, -1.08, 0.0, 1.86, 2.68, 3.07, 3.58, 4.47, 4.47, 4.47, 4.38, 4.66, 5.75, 6.7, 6.8, 6.4, 7.07, 5.77, 4.29, 2.47, 1.73, 1.58, 0.0, 0.0, 0.0, 0.0, 0.0, 0.0, 0.0, 0.78, 0.82, 0.0, -1.16, -1.4, -2.2, -1.32, 0.74, 4.29, 5.43, 6.06, 5.59, 4.71, 4.83, 6.21, 6.2, 6.48, 6.21, 4.73, 4.73, -11.06, -11.06, -11.06, -10.76, -10.76, -10.45, -10.13, -10.13, -10.13, -9.49, -9.49, -9.49, -9.48, -9.48, -9.2, -9.09, -8.83, -8.83, -8.43, -8.16, -8.16, -8.16, -8.16, -7.73, -7.73, -7.5, -7.06, -6.6, -6.36, -5.7, -5.42, -5.25, -4.58, -4.62, -4.65, -3.99, -4.17, -4.02, -4.02, -4.02, -4.02, -3.53, -3.39, -3.16, -2.39, -2.3, -2.83, -3.32, -3.37, -2.36, -1.88, -1.11, 0.0, 1.79, 2.17, 2.6, 4.02, 4.47, 4.02, 4.47, 4.85, 5.59, 6.02, 6.16, 5.46, 7.07, 7.06, 5.06, 2.4, 0.88, 1.55, 2.35, 1.56, 0.0, -3.11, -5.45, -4.61, -1.57, 0.0, 1.53, 1.54, 1.07, 0.51, 1.16, 2.11, 3.53, 4.28, 3.79, 4.03, 3.91, 4.37, 3.88, 4.15, 5.52, 5.71, 5.6, 4.87, 4.87, -11.06, -11.06, -11.06, -10.76, -10.45, -10.45, -10.13, -10.13, -10.13, -9.49, -9.49, -9.21, -9.48, -9.48, -9.48, -9.09, -8.83, -8.83, -8.43, -8.16, -8.16, -8.16, -8.16, -7.5, -7.5, -7.5, -7.06, -6.85, -6.4, -5.92, -5.92, -5.42, -5.25, -4.77, -4.62, -4.65, -4.48, -4.17, -4.02, -4.02, -4.02, -4.05, -4.05, -3.91, -3.49, -3.21, -3.21, -3.35, -3.81, -3.84, -3.45, -3.08, -0.61, 0.6, 1.79, 2.12, 1.86, 2.63, 3.58, 4.47, 4.92, 5.31, 5.09, 5.2, 6.07, 7.03, 8.05, 7.44, 5.46, 3.48, 3.22, 4.96, 5.4, 3.07, -0.78, -4.55, -4.71, -3.04, -0.79, 1.56, 1.54, 1.76, 1.68, 2.28, 3.37, 4.39, 4.15, 4.31, 3.78, 3.53, 4.31, 3.76, 3.41, 4.55, 4.31, 4.17, 4.15, 4.15, -11.06, -11.06, -11.06, -10.76, -10.45, -10.45, -10.13, -10.13, -10.13, -9.49, -9.49, -9.49, -9.48, -9.48, -9.09, -8.83, -8.83, -8.83, -8.83, -8.16, -8.16, -8.16, -8.18, -7.5, -7.5, -7.5, -7.1, -6.64, -5.73, -5.92, -5.92, -5.92, -5.92, -5.25, -5.28, -4.62, -4.65, -4.48, -4.68, -4.02, -4.02, -4.02, -4.05, -4.08, -4.6, -4.6, -4.07, -3.56, -3.83, -3.84, -4.12, -4.12, -2.58, 0.0, 0.89, 0.89, 1.2, 2.12, 2.91, 4.38, 4.92, 5.29, 5.09, 4.84, 5.43, 6.0, 6.8, 7.6, 7.81, 5.06, 4.81, 6.01, 6.45, 6.35, 4.04, -0.78, -4.65, -4.75, -3.19, -0.79, 0.0, 1.45, 2.83, 3.41, 4.1, 4.62, 4.65, 4.84, 4.23, 3.46, 2.95, 2.71, 2.14, 2.1, 2.87, 2.76, 2.88, 2.88, -11.36, -11.36, -10.76, -10.45, -10.45, -10.45, -10.13, -10.13, -10.13, -9.49, -9.49, -9.49, -9.48, -9.48, -8.83, -8.83, -8.83, -8.83, -8.83, -8.16, -8.43, -8.43, -8.18, -7.76, -7.76, -7.53, -7.1, -6.88, -6.4, -5.77, -6.4, -6.4, -5.92, -5.73, -5.28, -5.28, -4.62, -4.65, -4.48, -4.68, -4.51, -4.51, -4.02, -4.54, -4.76, -4.76, -4.08, -3.49, -3.56, -3.4, -4.1, -4.12, -3.48, -1.88, -0.54, 0.0, 0.95, 1.34, 2.6, 3.53, 4.92, 4.92, 4.8, 4.4, 4.84, 5.05, 5.2, 5.01, 5.37, 4.71, 4.95, 4.95, 4.88, 5.5, 6.22, 3.11, -1.55, -4.0, -3.21, -2.14, 0.0, 2.08, 3.57, 4.01, 4.01, 4.17, 4.58, 4.48, 3.76, 2.95, 2.1, 1.39, 0.67, 0.73, 2.1, 2.14, 2.1, 2.1, -11.36, -11.36, -10.75, -10.45, -10.45, -10.45, -10.13, -10.13, -10.13, -9.84, -9.49, -9.49, -9.48, -9.48, -8.83, -8.83, -8.83, -8.83, -8.83, -8.43, -8.43, -8.43, -8.18, -7.76, -7.76, -7.53, -7.1, -6.88, -6.68, -6.4, -5.8, -6.22, -5.96, -5.96, -5.77, -5.28, -5.28, -5.11, -5.14, -4.65, -4.68, -4.68, -4.51, -4.72, -4.54, -4.54, -4.54, -4.08, -3.45, -2.83, -3.56, -3.64, -3.45, -2.4, -1.11, 0.0, 0.0, 0.65, 1.58, 2.68, 4.02, 5.29, 5.81, 4.8, 5.34, 5.43, 5.21, 4.11, 4.02, 3.91, 5.1, 4.26, 2.44, 1.54, 2.37, 4.01, 3.93, 1.56, 0.0, 0.0, 0.0, 0.71, 2.14, 2.83, 2.26, 2.94, 3.41, 3.47, 2.37, 1.54, 0.75, 0.0, 0.0, 0.0, 0.0, 0.74, 0.68, 0.68, -11.03, -11.03, -10.75, -10.75, -10.45, -10.45, -10.13, -10.13, -10.13, -9.84, -9.49, -9.77, -9.48, -9.21, -8.83, -8.83, -8.83, -8.83, -8.83, -8.43, -8.43, -8.43, -8.18, -7.76, -7.76, -7.53, -7.1, -7.1, -7.1, -6.43, -6.22, -6.0, -6.0, -6.0, -5.77, -5.77, -5.77, -5.28, -5.32, -5.14, -5.14, -4.68, -4.68, -4.51, -4.72, -4.54, -4.54, -3.89, -4.08, -3.42, -2.93, -2.8, -3.01, -2.37, -1.76, -0.58, 0.0, 0.0, 0.57, 1.88, 6.26, 6.26, 6.14, 6.23, 5.34, 5.43, 5.46, 5.15, 5.06, 5.69, 5.89, 4.96, 2.17, 0.0, 0.0, 3.18, 6.27, 6.37, 4.95, 2.15, 0.0, 0.0, 0.0, 0.0, 1.42, 1.64, 1.66, 1.74, 0.74, 0.0, 0.0, -0.78, -0.68, -1.44, -0.7, 0.0, 0.0, 0.0, -11.03, -11.03, -10.75, -10.75, -10.75, -10.45, -10.13, -10.13, -10.13, -9.84, -9.84, -9.49, -9.21, -9.21, -9.12, -8.83, -8.83, -8.83, -8.83, -8.43, -8.43, -8.18, -8.18, -8.18, -7.53, -7.53, -7.53, -7.1, -7.1, -7.1, -6.43, -6.22, -6.0, -5.8, -5.8, -5.8, -6.0, -6.0, -5.8, -5.32, -5.14, -5.14, -4.65, -4.68, -4.68, -4.51, -4.54, -4.05, -4.08, -4.08, -3.39, -3.57, -2.9, -2.25, -1.75, -1.07, -0.56, -0.58, 0.0, 1.73, 4.77, 6.61, 6.58, 6.61, 6.79, 6.13, 5.15, 5.82, 5.77, 6.01, 5.64, 5.46, 3.61, 1.54, 0.0, 2.32, 5.51, 7.22, 7.11, 4.82, 1.43, 0.0, -0.7, 0.0, 0.71, 1.14, 0.55, 0.0, 0.0, 0.0, -0.69, -0.72, -1.6, -1.45, -1.36, -1.36, 0.0, 0.0, -10.75, -10.75, -10.75, -10.75, -10.75, -10.75, -10.13, -10.13, -10.13, -9.84, -9.84, -9.49, -9.49, -9.49, -8.85, -9.12, -8.83, -8.83, -8.43, -8.43, -8.18, -8.18, -8.18, -8.18, -7.53, -7.53, -7.53, -7.1, -7.1, -7.1, -6.64, -6.43, -6.22, -6.0, -5.8, -5.8, -5.8, -5.8, -5.8, -5.8, -5.8, -5.14, -5.14, -4.68, -4.68, -4.68, -4.02, -4.05, -4.05, -3.89, -3.89, -3.39, -3.39, -2.9, -1.71, -1.18, -1.14, -0.56, 0.0, 1.16, 3.2, 5.7, 6.61, 5.59, 5.75, 5.59, 4.81, 5.46, 5.82, 5.77, 6.32, 5.89, 5.64, 3.87, 2.35, 1.51, 2.33, 3.87, 4.7, 3.58, 2.2, 1.46, 1.38, 1.36, 1.39, 0.7, 0.0, 0.0, 0.0, 0.0, 0.0, 0.0, 0.0, 0.0, 0.0, 0.0, -0.68, -0.68, -10.75, -10.75, -10.75, -10.75, -10.43, -10.13, -9.84, -10.13, -10.13, -9.84, -9.84, -9.49, -9.49, -9.22, -8.85, -8.85, -8.83, -8.83, -8.18, -8.18, -8.18, -8.18, -8.18, -7.76, -7.53, -7.53, -7.53, -7.53, -7.1, -7.1, -7.1, -6.43, -6.43, -6.22, -5.77, -5.8, -5.8, -5.8, -5.8, -5.8, -5.8, -5.8, -5.36, -4.65, -4.05, -4.68, -4.68, -4.51, -4.54, -4.05, -4.05, -3.89, -3.39, -2.9, -2.25, -1.73, -1.12, -1.16, 0.0, 1.14, 2.4, 4.55, 6.61, 5.59, 5.75, 6.13, 5.21, 5.82, 5.82, 5.43, 5.69, 6.32, 5.69, 6.85, 4.81, 2.33, 0.0, 0.0, 0.0, 0.0, 1.43, 2.88, 2.91, 2.88, 2.06, 1.39, 1.45, 0.73, 0.74, 1.52, 1.41, 1.36, 1.4, 1.54, 1.56, 0.7, 0.68, 0.0, -10.75, -10.75, -10.43, -10.43, -10.43, -10.13, -10.13, -9.84, -10.13, -10.13, -9.49, -9.22, -9.22, -9.22, -8.85, -8.85, -8.57, -8.57, -8.18, -8.18, -8.18, -8.18, -8.18, -7.53, -7.8, -7.8, -7.8, -7.53, -7.1, -7.1, -7.1, -6.88, -6.43, -6.43, -6.43, -5.77, -6.0, -5.8, -5.8, -5.83, -5.83, -5.83, -5.62, -5.4, -4.05, -4.68, -4.68, -4.68, -4.72, -4.54, -4.05, -3.89, -3.39, -2.9, -2.25, -1.73, -1.11, -0.56, 0.56, 1.12, 1.7, 4.07, 6.23, 5.59, 5.2, 5.75, 6.8, 6.07, 5.77, 5.77, 6.08, 6.01, 5.72, 6.31, 8.0, 6.97, 1.55, -1.55, -3.64, -2.85, -0.69, 0.71, 2.1, 2.82, 2.82, 2.87, 2.1, 2.15, 2.23, 2.9, 2.9, 2.23, 2.17, 2.25, 1.58, 1.44, 0.71, 0.68, -10.43, -10.43, -10.43, -10.43, -10.43, -10.13, -10.13, -9.84, -9.84, -10.13, -9.5, -9.5, -9.5, -8.85, -8.85, -8.85, -8.85, -8.57, -8.18, -8.18, -8.18, -8.18, -8.18, -7.53, -7.8, -7.8, -7.8, -7.53, -7.53, -7.1, -7.1, -6.88, -6.88, -6.43, -6.43, -6.43, -5.77, -6.0, -5.8, -5.8, -5.83, -5.83, -5.83, -5.64, -5.4, -4.51, -5.17, -5.4, -5.2, -4.54, -4.54, -4.08, -3.57, -2.9, -2.25, -1.73, -1.11, 0.0, 0.0, 0.56, 1.14, 2.86, 4.4, 5.81, 6.23, 6.64, 5.82, 5.46, 5.82, 5.77, 5.77, 5.37, 4.71, 5.69, 8.68, 11.28, 9.66, 3.95, 0.0, -2.12, -1.45, 0.0, 1.42, 2.76, 2.81, 2.76, 2.76, 2.93, 2.31, 2.21, 1.43, 1.47, 0.72, 0.8, 0.77, 0.0, 0.0, 0.71, -10.72, -10.72, -10.72, -10.43, -10.13, -10.13, -10.13, -9.84, -9.84, -9.84, -9.5, -9.5, -9.5, -8.85, -8.85, -8.85, -8.85, -8.85, -8.18, -8.18, -8.18, -8.18, -7.93, -7.8, -7.8, -7.8, -7.8, -7.8, -7.53, -7.53, -7.1, -6.88, -6.88, -6.88, -6.43, -6.43, -6.22, -6.46, -6.0, -5.8, -5.8, -5.83, -5.83, -6.53, -6.53, -6.1, -5.2, -5.23, -5.26, -4.8, -4.57, -3.91, -3.91, -3.42, -2.93, -2.28, -1.65, -0.56, 0.0, 0.0, 0.0, 2.44, 5.37, 5.81, 5.81, 6.23, 5.21, 6.13, 5.46, 5.77, 5.77, 4.65, 3.68, 4.46, 6.98, 10.19, 12.73, 11.49, 8.0, 4.58, 2.99, 2.83, 3.53, 3.53, 3.58, 2.09, 2.14, 1.39, 0.72, 0.72, 0.0, 0.0, 0.0, 0.0, 0.0, 0.0, -0.76, -0.76, -10.72, -10.72, -10.4, -10.12, -9.82, -9.82, -10.13, -10.13, -9.84, -9.5, -9.5, -9.21, -9.21, -8.86, -8.85, -8.85, -8.85, -8.85, -8.46, -8.18, -8.18, -8.18, -7.93, -7.8, -7.8, -7.8, -7.8, -7.8, -7.8, -7.8, -7.1, -7.1, -7.1, -6.88, -6.88, -6.43, -6.43, -6.22, -6.46, -6.0, -5.8, -5.8, -5.83, -6.27, -6.5, -6.04, -5.17, -4.57, -4.6, -4.6, -3.94, -3.94, -3.94, -3.45, -2.8, -2.8, -1.67, -1.14, -0.54, -0.55, 0.0, 1.73, 3.43, 5.2, 5.6, 6.23, 5.75, 6.13, 5.15, 5.06, 4.65, 3.9, 3.68, 4.16, 4.71, 5.92, 7.82, 10.43, 12.42, 12.09, 10.25, 8.59, 7.67, 5.73, 5.01, 3.17, 2.15, 1.4, 0.0, 0.0, 0.0, -0.71, -0.73, -0.78, -1.58, -1.52, -1.52, -1.52, -10.4, -10.4, -10.12, -10.12, -10.12, -9.82, -9.82, -9.82, -9.82, -9.21, -9.21, -9.21, -8.86, -8.86, -8.58, -8.85, -8.85, -8.85, -8.46, -8.46, -8.18, -7.93, -8.2, -7.8, -7.8, -7.8, -7.8, -7.8, -7.55, -7.55, -7.55, -7.1, -7.1, -7.1, -6.88, -6.88, -6.68, -6.46, -6.46, -6.46, -6.46, -5.8, -5.8, -6.5, -6.5, -5.8, -5.36, -4.72, -4.57, -4.12, -3.94, -3.49, -3.49, -3.49, -3.32, -2.83, -2.33, -1.69, -1.16, -1.09, 0.0, 1.73, 3.48, 5.2, 5.2, 5.6, 5.36, 5.59, 5.15, 5.06, 4.16, 4.29, 3.9, 4.03, 3.27, 3.06, 4.65, 7.04, 10.22, 12.34, 13.0, 12.75, 10.81, 8.2, 6.35, 4.87, 3.73, 2.25, 0.72, 0.0, -0.74, -1.4, -1.44, -2.31, -2.25, -2.31, -2.31, -2.31, -10.4, -10.4, -10.12, -10.12, -10.12, -10.12, -9.82, -9.82, -9.5, -9.5, -9.5, -9.21, -8.86, -8.86, -8.86, -8.58, -8.58, -8.58, -8.2, -8.2, -8.2, -8.2, -8.2, -7.8, -7.8, -7.8, -7.8, -7.55, -7.55, -7.55, -7.55, -7.53, -7.53, -7.1, -6.88, -6.88, -6.88, -6.68, -6.46, -6.46, -6.46, -6.46, -6.25, -5.8, -5.83, -5.83, -5.36, -5.17, -4.72, -4.05, -3.42, -3.45, -3.3, -2.97, -2.83, -2.33, -2.21, -1.69, -1.16, -0.55, 0.0, 1.7, 2.86, 3.43, 5.6, 5.01, 5.36, 4.81, 4.74, 4.74, 5.37, 4.29, 4.16, 4.03, 3.27, 3.32, 3.29, 5.62, 7.8, 9.99, 12.07, 12.32, 10.49, 8.8, 7.13, 6.26, 5.09, 3.01, 0.71, 0.0, -1.04, -2.18, -3.15, -3.11, -3.11, -3.11, -3.11, -3.11, -10.12, -10.12, -9.8, -9.8, -9.8, -9.8, -9.82, -9.5, -9.5, -9.5, -9.5, -9.5, -8.86, -8.86, -8.86, -8.86, -8.58, -8.2, -8.2, -8.2, -8.2, -8.2, -8.2, -8.2, -7.8, -7.8, -7.8, -7.55, -7.55, -7.55, -7.8, -7.8, -7.53, -7.53, -7.1, -6.88, -6.88, -7.13, -7.13, -6.46, -6.46, -6.46, -6.25, -5.8, -5.83, -5.83, -5.17, -5.17, -4.51, -4.72, -4.05, -3.57, -2.9, -2.93, -2.28, -2.3, -1.78, -1.14, -1.14, 0.0, 0.0, 1.14, 1.73, 3.16, 4.0, 5.01, 5.01, 4.11, 5.15, 4.81, 5.06, 5.06, 4.95, 4.03, 3.27, 3.15, 3.11, 3.96, 6.09, 8.5, 10.1, 11.16, 9.74, 8.8, 7.82, 6.43, 4.23, 1.4, 0.0, -1.06, -3.34, -3.15, -3.69, -3.8, -3.88, -3.7, -3.7, -3.7, -10.09, -10.09, -9.8, -9.8, -9.8, -9.8, -9.5, -9.5, -9.21, -9.21, -9.21, -9.21, -8.86, -8.86, -8.86, -8.86, -8.86, -8.2, -8.2, -8.2, -8.2, -8.2, -8.2, -8.2, -7.8, -7.8, -7.8, -7.55, -7.55, -7.55, -7.8, -7.8, -7.8, -7.53, -7.53, -7.1, -7.1, -7.13, -7.13, -6.46, -6.46, -6.46, -6.25, -5.8, -5.83, -5.83, -5.17, -5.17, -4.72, -4.72, -4.05, -3.89, -3.39, -2.9, -2.25, -1.73, -1.65, -1.12, -0.57, 0.0, 0.0, 0.53, 1.73, 2.86, 4.0, 5.01, 5.01, 5.36, 6.13, 5.15, 4.81, 5.06, 4.16, 3.4, 3.27, 3.15, 3.21, 4.01, 6.21, 7.25, 8.86, 9.76, 10.52, 10.95, 9.28, 6.35, 2.8, 0.0, -0.74, -3.21, -3.8, -4.03, -3.64, -4.29, -4.46, -4.37, -4.37, -4.37, -10.09, -10.09, -10.09, -10.09, -9.8, -9.5, -9.5, -9.5, -9.21, -9.21, -9.21, -9.21, -8.87, -8.86, -8.86, -8.86, -8.86, -8.49, -8.2, -8.2, -8.2, -8.2, -8.2, -8.2, -7.8, -7.8, -7.55, -7.55, -7.55, -7.55, -7.8, -7.8, -7.8, -7.8, -7.53, -7.53, -7.53, -7.13, -7.13, -6.9, -6.46, -6.25, -6.25, -6.04, -5.83, -5.83, -5.17, -5.17, -4.72, -4.72, -4.54, -4.05, -3.39, -3.39, -2.35, -2.25, -1.73, -1.65, -1.12, -0.57, 0.0, 0.0, 1.07, 2.6, 4.0, 5.36, 5.36, 5.75, 6.13, 5.15, 4.74, 4.65, 4.03, 4.03, 3.27, 4.12, 4.0, 4.92, 6.45, 7.12, 7.25, 8.39, 11.41, 13.58, 11.95, 7.74, 3.62, 0.69, -1.36, -2.72, -3.72, -4.43, -4.75, -5.43, -5.0, -4.94, -4.94, -4.94, -10.09, -10.09, -9.77, -9.77, -9.5, -9.5, -9.5, -9.5, -9.5, -9.5, -9.21, -9.21, -8.87, -8.87, -8.59, -8.59, -8.86, -8.49, -8.49, -8.2, -8.2, -8.2, -8.2, -8.2, -7.8, -7.8, -7.55, -7.55, -7.55, -7.8, -7.8, -7.8, -7.8, -7.8, -7.53, -7.53, -7.53, -7.13, -7.13, -6.9, -6.46, -6.25, -6.5, -5.83, -5.83, -5.83, -5.17, -5.17, -5.2, -4.72, -4.54, -4.05, -4.05, -3.39, -2.9, -2.9, -2.25, -1.73, -1.67, -1.14, -0.58, 0.0, 1.16, 2.22, 3.16, 4.54, 4.81, 5.15, 5.15, 5.15, 4.74, 4.29, 4.16, 3.2, 4.03, 4.71, 4.71, 5.38, 6.31, 6.45, 6.09, 7.01, 10.15, 12.85, 11.17, 7.93, 1.41, 0.0, 0.0, 0.0, -1.33, -2.79, -4.4, -6.07, -5.72, -5.37, -5.37, -5.37, -10.09, -9.77, -9.77, -9.77, -9.48, -9.19, -9.5, -9.5, -9.5, -9.5, -9.21, -9.21, -8.87, -8.87, -8.59, -8.59, -8.59, -8.86, -8.49, -8.49, -8.2, -8.2, -8.2, -8.2, -8.2, -7.8, -7.8, -7.55, -7.55, -7.8, -7.8, -7.8, -7.8, -7.8, -7.8, -7.8, -7.8, -7.55, -7.13, -6.9, -6.9, -6.5, -6.5, -5.83, -5.83, -5.62, -5.17, -5.17, -5.2, -4.72, -4.72, -4.05, -4.05, -3.39, -3.57, -2.9, -2.77, -2.28, -1.75, -1.14, -0.58, 0.0, 0.59, 1.76, 2.86, 3.79, 4.54, 5.46, 5.82, 6.07, 5.82, 5.06, 4.01, 3.33, 4.16, 5.3, 5.89, 5.49, 5.38, 5.52, 5.52, 5.76, 6.87, 7.82, 7.38, 2.18, 0.7, 0.69, 1.41, 2.04, 1.36, -0.66, -2.86, -5.34, -6.0, -5.72, -5.72, -5.72, -9.77, -9.77, -9.77, -9.48, -9.48, -9.19, -9.19, -9.19, -9.19, -9.5, -9.5, -9.21, -9.21, -8.87, -8.87, -8.59, -8.59, -8.59, -8.22, -8.22, -8.49, -8.2, -8.2, -8.2, -8.2, -8.2, -7.8, -7.8, -7.8, -7.8, -7.8, -7.8, -7.8, -7.8, -7.8, -7.8, -7.55, -7.55, -7.13, -6.9, -7.16, -6.5, -6.27, -5.83, -5.83, -5.62, -5.17, -5.4, -5.2, -4.72, -4.72, -4.72, -4.05, -3.89, -3.57, -3.42, -2.93, -2.28, -1.75, -1.69, -1.16, 0.0, 0.53, 1.08, 2.23, 2.84, 3.48, 4.84, 5.82, 6.4, 6.07, 6.08, 5.43, 5.15, 4.74, 5.77, 5.59, 5.89, 4.96, 4.6, 4.5, 4.71, 4.71, 4.0, 0.74, 0.72, 0.7, 1.42, 1.4, 1.32, 2.02, 0.73, -0.76, -3.22, -5.34, -6.07, -6.07, -6.07, -9.77, -9.77, -9.77, -9.48, -9.48, -9.48, -9.19, -9.19, -9.19, -9.5, -9.5, -9.21, -9.21, -8.87, -8.87, -8.87, -8.59, -8.59, -8.22, -8.22, -8.22, -8.22, -8.2, -8.2, -8.2, -8.2, -8.2, -8.2, -7.8, -7.8, -7.8, -7.8, -7.8, -7.8, -7.8, -7.55, -7.55, -7.55, -6.9, -6.9, -6.92, -6.5, -6.27, -5.83, -5.83, -5.62, -5.4, -5.4, -5.2, -5.2, -4.72, -4.72, -4.72, -4.05, -3.39, -3.42, -2.93, -2.28, -2.3, -1.69, -1.16, 0.0, 0.0, 0.61, 1.58, 1.84, 3.58, 4.22, 5.2, 5.43, 5.82, 6.18, 5.77, 5.77, 5.46, 5.77, 5.69, 5.59, 4.71, 4.12, 4.0, 3.88, 3.78, 1.6, 1.48, 1.43, 2.08, 0.69, 0.0, -0.69, -0.68, -0.71, -1.54, -2.07, -4.0, -6.28, -6.28, -6.28, -9.77, -9.77, -9.77, -9.48, -9.48, -9.48, -9.48, -9.19, -9.19, -9.19, -9.5, -9.5, -9.21, -8.87, -8.87, -8.87, -8.87, -8.59, -8.22, -8.22, -8.22, -8.22, -8.2, -8.2, -8.2, -8.2, -8.2, -8.2, -8.2, -8.2, -7.8, -7.8, -7.8, -7.8, -7.8, -7.55, -7.55, -7.31, -6.9, -7.16, -6.92, -6.5, -6.27, -6.27, -5.83, -5.62, -5.4, -5.4, -5.2, -5.2, -4.72, -4.72, -4.54, -4.05, -3.89, -3.42, -2.93, -2.8, -2.3, -1.69, -1.16, -0.56, 0.0, 0.54, 1.11, 1.13, 1.58, 1.86, 3.58, 4.19, 4.54, 4.81, 5.06, 5.43, 5.43, 5.77, 5.37, 5.69, 4.83, 4.26, 3.91, 4.0, 3.91, 4.1, 5.18, 4.36, 2.76, 0.69, -1.36, -3.6, -4.2, -3.53, -2.28, -1.8, -2.68, -3.07, -3.07, -3.07, -10.06, -10.06, -9.77, -9.48, -9.48, -9.48, -9.48, -9.19, -9.19, -9.19, -9.19, -9.19, -9.17, -8.87, -8.87, -8.87, -8.87, -8.87, -8.22, -8.22, -8.22, -8.22, -8.22, -8.2, -8.2, -8.2, -8.2, -8.2, -8.2, -8.2, -8.2, -7.8, -7.8, -7.8, -7.55, -7.55, -7.31, -7.57, -7.16, -7.16, -6.92, -6.5, -6.27, -6.27, -5.83, -5.86, -5.86, -5.4, -5.2, -5.2, -5.2, -4.72, -4.54, -4.05, -4.08, -3.42, -3.45, -2.8, -2.3, -1.69, -1.16, -0.56, 0.0, 0.0, 0.55, 1.11, 1.16, 1.61, 2.68, 3.48, 3.79, 4.19, 4.43, 5.15, 4.74, 4.29, 5.06, 4.95, 4.83, 4.26, 4.03, 4.12, 4.65, 6.37, 7.97, 6.22, 4.01, 1.54, 0.0, -2.3, -2.88, -2.06, -0.72, 0.0, 0.0, 0.57, 0.57, 0.57, -10.06, -10.06, -9.77, -9.77, -9.48, -9.48, -9.48, -9.48, -9.19, -9.19, -9.19, -8.87, -8.87, -8.87, -8.87, -8.87, -8.87, -8.87, -8.59, -8.22, -8.22, -8.22, -8.22, -8.2, -8.2, -8.2, -8.2, -8.2, -8.2, -8.2, -8.2, -8.2, -7.8, -7.55, -7.55, -7.55, -7.57, -7.16, -7.16, -6.92, -6.92, -6.27, -6.27, -6.27, -6.08, -5.86, -5.86, -5.86, -5.4, -5.2, -5.2, -4.72, -4.54, -4.05, -4.08, -3.91, -3.45, -2.8, -2.83, -2.33, -1.71, -1.1, -0.53, 0.0, 0.0, 0.57, 1.13, 1.6, 1.6, 2.53, 3.07, 4.19, 4.54, 4.81, 4.74, 4.01, 3.22, 3.33, 3.2, 4.03, 4.03, 3.88, 3.85, 4.52, 6.46, 4.69, 3.65, 2.85, 1.32, 0.0, 0.0, 1.41, 2.8, 2.8, 3.9, 4.83, 4.83, 4.83, -10.06, -10.06, -10.06, -9.77, -9.48, -9.48, -9.48, -9.48, -9.48, -9.19, -8.87, -8.87, -8.87, -8.87, -8.59, -8.87, -8.87, -8.87, -8.87, -8.22, -8.22, -8.22, -8.22, -8.22, -8.2, -8.2, -8.2, -8.2, -8.2, -8.2, -8.2, -8.2, -7.55, -7.55, -7.55, -7.57, -7.57, -7.16, -6.92, -6.92, -6.92, -6.27, -6.27, -6.27, -6.53, -5.86, -5.86, -5.86, -5.4, -5.2, -5.2, -4.54, -4.54, -4.54, -4.08, -3.91, -3.45, -3.45, -2.83, -2.33, -2.37, -1.73, -1.12, -0.58, 0.0, 0.0, 0.57, 1.13, 1.8, 1.83, 2.95, 3.84, 4.19, 4.19, 4.11, 4.43, 3.72, 3.47, 3.33, 3.2, 3.27, 3.06, 1.62, 1.6, 2.36, 2.36, 2.12, 2.83, 2.72, 2.76, 2.9, 4.22, 5.04, 5.41, 5.41, 6.2, 6.2, 6.2, -9.72, -9.72, -10.06, -9.78, -9.48, -9.48, -9.48, -9.48, -9.48, -9.19, -8.87, -8.87, -8.87, -8.87, -8.87, -8.59, -8.59, -8.87, -8.87, -8.87, -8.22, -8.22, -8.22, -8.22, -8.49, -8.2, -8.2, -8.2, -8.2, -8.2, -8.2, -7.55, -7.55, -7.55, -7.57, -7.57, -7.16, -6.92, -6.92, -6.92, -6.94, -6.53, -6.53, -6.53, -6.53, -5.86, -5.86, -5.86, -5.86, -5.4, -5.2, -4.54, -4.54, -4.76, -4.08, -3.91, -3.45, -3.45, -2.83, -2.86, -2.21, -1.73, -1.12, -0.58, -0.53, 0.0, 0.0, 0.57, 1.27, 1.66, 2.68, 3.48, 3.84, 3.84, 4.11, 4.43, 3.47, 3.47, 3.11, 3.2, 2.54, 2.35, 0.79, 0.0, 0.0, 0.0, 0.8, 2.11, 3.47, 4.94, 4.92, 4.31, 4.23, 4.68, 4.5, 4.6, 4.6, 4.6, -9.72, -9.72, -9.72, -9.46, -9.17, -9.17, -9.17, -9.48, -9.48, -9.48, -8.87, -8.87, -8.87, -8.87, -8.87, -8.87, -8.59, -8.59, -8.87, -8.87, -8.59, -8.22, -8.22, -8.22, -8.49, -8.2, -8.2, -8.2, -8.2, -7.95, -7.95, -7.55, -7.55, -7.83, -7.57, -7.57, -7.16, -6.92, -6.92, -6.94, -6.94, -6.53, -6.53, -6.53, -6.53, -6.08, -5.86, -5.86, -5.86, -5.4, -5.2, -4.54, -4.54, -4.57, -4.08, -3.91, -4.12, -3.45, -3.32, -2.83, -2.33, -1.71, -1.76, -1.12, -0.58, -0.59, 0.0, 0.0, 0.57, 1.13, 1.6, 2.68, 3.16, 3.16, 3.48, 3.35, 3.22, 2.47, 2.35, 2.51, 2.4, 1.6, 0.82, 0.0, -0.8, 0.0, 0.0, 2.83, 5.01, 5.73, 5.72, 4.94, 4.32, 4.01, 3.85, 3.85, 3.85, 3.85, -9.72, -9.72, -9.46, -9.46, -9.46, -9.17, -9.17, -9.17, -9.17, -9.48, -9.17, -8.87, -8.87, -8.87, -8.87, -8.87, -8.87, -8.87, -8.59, -8.87, -8.87, -8.22, -8.22, -8.22, -8.22, -8.49, -8.22, -7.95, -7.95, -7.95, -7.83, -7.83, -7.83, -7.57, -7.57, -7.16, -6.92, -6.92, -7.19, -6.94, -6.94, -6.94, -6.53, -6.53, -6.53, -6.53, -5.86, -5.86, -5.86, -5.86, -5.2, -5.0, -4.76, -4.57, -3.91, -3.91, -4.12, -3.45, -3.49, -2.83, -2.33, -2.23, -1.73, -1.76, -1.12, -0.58, 0.0, 0.0, 0.0, 0.51, 1.13, 1.8, 2.68, 2.98, 2.68, 2.53, 2.4, 1.72, 1.63, 1.63, 1.58, 0.81, 0.0, 0.0, 0.0, 0.0, 1.55, 3.83, 5.01, 5.81, 5.73, 5.02, 4.24, 3.53, 3.53, 4.15, 4.15, 4.15, -9.46, -9.46, -9.46, -9.46, -9.46, -9.46, -9.17, -9.17, -9.17, -9.17, -8.87, -8.58, -8.87, -8.87, -8.87, -8.87, -8.87, -8.87, -8.59, -8.59, -8.87, -8.59, -8.22, -8.22, -8.22, -8.22, -8.22, -8.22, -8.22, -7.83, -7.83, -7.83, -7.57, -7.57, -7.57, -7.16, -6.92, -6.92, -7.19, -6.94, -6.94, -6.94, -6.53, -6.53, -6.53, -6.53, -5.86, -5.86, -5.86, -5.64, -5.2, -5.0, -4.76, -4.57, -4.08, -3.91, -4.12, -3.45, -3.49, -2.83, -2.86, -2.37, -2.4, -1.63, -1.65, -1.14, -0.59, 0.0, 0.0, 0.0, 0.59, 1.33, 1.84, 2.98, 1.66, 1.83, 1.7, 1.52, 1.63, 0.79, 0.76, 0.81, 0.0, 0.0, 0.78, 2.4, 3.18, 4.71, 5.41, 5.56, 6.24, 5.35, 4.31, 3.47, 3.39, 4.01, 4.01, 4.01, -9.46, -9.46, -9.46, -9.46, -9.46, -9.46, -9.17, -9.17, -9.17, -9.17, -8.87, -8.58, -8.87, -8.87, -8.87, -8.87, -8.87, -8.87, -8.59, -8.59, -8.87, -8.59, -8.22, -8.22, -8.22, -8.22, -8.22, -8.22, -8.22, -7.83, -7.83, -7.83, -7.57, -7.57, -7.57, -7.16, -6.92, -6.92, -7.19, -6.94, -6.94, -6.94, -6.53, -6.53, -6.53, -6.53, -5.86, -5.86, -5.86, -5.64, -5.2, -5.0, -4.76, -4.57, -4.08, -3.91, -4.12, -3.45, -3.49, -2.83, -2.86, -2.37, -2.4, -1.63, -1.65, -1.14, -0.59, 0.0, 0.0, 0.0, 0.59, 1.33, 1.84, 2.98, 1.66, 1.83, 1.6, 1.52, 1.63, 0.79, 0.76, 0.0, 0.0, 0.76, 1.57, 2.37, 3.9, 4.71, 5.41, 5.41, 5.56, 5.67, 5.28, 4.06, 3.85, 3.95, 3.95, 3.95]}]